Wetterdaten: Sonntag, 01.01.2017
Datum Zeit Temp. Aussen Temp. o. S. +5cm Feuchte Auss BlattFeu 1 Luftdruck Regen Sonnenschein Regendauer Solar Windben Empfang
01.01.2017 00:00 -2,7 C -2,8 C -5,0 C 92 % 1 lf 1025,6 hPa 0,0 l/m 0 min 0 min 0 W/m 6,3 km/h (2 Bft) 97,87 %
01.01.2017 00:02 -2,7 C -2,8 C -5,0 C 92 % 1 lf 1025,6 hPa 0,0 l/m 0 min 0 min 0 W/m 6,3 km/h (2 Bft) 96,97 %
01.01.2017 00:06 -2,8 C -3,3 C -5,0 C 92 % 1 lf 1025,5 hPa 0,0 l/m 0 min 0 min 0 W/m 8,4 km/h (2 Bft) 100,00 %
01.01.2017 00:08 -2,8 C -2,8 C -5,0 C 92 % 1 lf 1025,4 hPa 0,0 l/m 0 min 0 min 0 W/m 6,3 km/h (2 Bft) 100,00 %
01.01.2017 00:10 -2,8 C -2,8 C -5,0 C 92 % 1 lf 1025,4 hPa 0,0 l/m 0 min 0 min 0 W/m 8,4 km/h (2 Bft) 100,00 %
01.01.2017 00:12 -2,8 C -2,8 C -5,0 C 92 % 1 lf 1025,4 hPa 0,0 l/m 0 min 0 min 0 W/m 6,3 km/h (2 Bft) 91,49 %
01.01.2017 00:14 -2,9 C -2,8 C -4,4 C 92 % 1 lf 1025,4 hPa 0,0 l/m 0 min 0 min 0 W/m 8,4 km/h (2 Bft) 97,83 %
01.01.2017 00:16 -2,9 C -2,8 C -4,4 C 92 % 1 lf 1025,3 hPa 0,0 l/m 0 min 0 min 0 W/m 8,4 km/h (2 Bft) 97,56 %
01.01.2017 00:18 -2,9 C -2,8 C -4,4 C 92 % 1 lf 1025,3 hPa 0,0 l/m 0 min 0 min 0 W/m 8,4 km/h (2 Bft) 97,87 %
01.01.2017 00:20 -2,9 C -2,8 C -4,4 C 92 % 0 lf 1025,3 hPa 0,0 l/m 0 min 0 min 0 W/m 10,5 km/h (2 Bft) 100,00 %
01.01.2017 00:22 -2,9 C -2,8 C -4,4 C 92 % 0 lf 1025,2 hPa 0,0 l/m 0 min 0 min 0 W/m 10,5 km/h (2 Bft) 96,00 %
01.01.2017 00:24 -2,9 C -2,8 C -4,4 C 92 % 0 lf 1025,2 hPa 0,0 l/m 0 min 0 min 0 W/m 8,4 km/h (2 Bft) 97,87 %
01.01.2017 00:26 -2,9 C -2,8 C -4,4 C 92 % 0 lf 1025,1 hPa 0,0 l/m 0 min 0 min 0 W/m 10,5 km/h (2 Bft) 95,65 %
01.01.2017 00:28 -2,9 C -2,8 C -4,4 C 92 % 0 lf 1025,2 hPa 0,0 l/m 0 min 0 min 0 W/m 10,5 km/h (2 Bft) 95,74 %
01.01.2017 00:30 -3,0 C -3,3 C -5,0 C 92 % 0 lf 1025,2 hPa 0,0 l/m 0 min 0 min 0 W/m 6,3 km/h (2 Bft) 97,87 %
01.01.2017 00:32 -3,0 C -3,3 C -5,0 C 92 % 1 lf 1025,2 hPa 0,0 l/m 0 min 0 min 0 W/m 4,2 km/h (1 Bft) 97,87 %
01.01.2017 00:34 -3,0 C -3,3 C -5,0 C 92 % 1 lf 1025,2 hPa 0,0 l/m 0 min 0 min 0 W/m 2,1 km/h (1 Bft) 97,87 %
01.01.2017 00:36 -3,0 C -3,3 C -5,0 C 92 % 1 lf 1025,2 hPa 0,0 l/m 0 min 0 min 0 W/m 4,2 km/h (1 Bft) 97,83 %
01.01.2017 00:38 -3,0 C -3,3 C -5,0 C 92 % 0 lf 1025,2 hPa 0,0 l/m 0 min 0 min 0 W/m 4,2 km/h (1 Bft) 97,87 %
01.01.2017 00:40 -3,1 C -3,3 C -5,0 C 92 % 0 lf 1025,2 hPa 0,0 l/m 0 min 0 min 0 W/m 8,4 km/h (2 Bft) 93,62 %
01.01.2017 00:42 -3,1 C -3,3 C -4,4 C 92 % 0 lf 1025,2 hPa 0,0 l/m 0 min 0 min 0 W/m 8,4 km/h (2 Bft) 95,74 %
01.01.2017 00:44 -3,1 C -3,3 C -4,4 C 92 % 0 lf 1025,2 hPa 0,0 l/m 0 min 0 min 0 W/m 8,4 km/h (2 Bft) 87,23 %
01.01.2017 00:46 -3,1 C -2,8 C -3,9 C 92 % 0 lf 1025,1 hPa 0,0 l/m 0 min 0 min 0 W/m 8,4 km/h (2 Bft) 93,62 %
01.01.2017 00:48 -3,1 C -2,8 C -3,9 C 92 % 0 lf 1025,0 hPa 0,0 l/m 0 min 0 min 0 W/m 8,4 km/h (2 Bft) 95,65 %
01.01.2017 00:50 -3,1 C -2,8 C -3,9 C 92 % 0 lf 1025,0 hPa 0,0 l/m 0 min 0 min 0 W/m 12,6 km/h (3 Bft) 93,62 %
01.01.2017 00:52 -3,0 C -2,2 C -3,9 C 92 % 0 lf 1024,9 hPa 0,0 l/m 0 min 0 min 0 W/m 14,6 km/h (3 Bft) 91,49 %
01.01.2017 00:54 -3,0 C -2,2 C -3,9 C 93 % 0 lf 1024,9 hPa 0,0 l/m 0 min 0 min 0 W/m 14,6 km/h (3 Bft) 91,49 %
01.01.2017 00:56 -2,9 C -2,2 C -3,3 C 93 % 0 lf 1024,8 hPa 0,0 l/m 0 min 0 min 0 W/m 14,6 km/h (3 Bft) 89,36 %
01.01.2017 00:58 -2,9 C -2,2 C -3,3 C 93 % 0 lf 1024,8 hPa 0,0 l/m 0 min 0 min 0 W/m 14,6 km/h (3 Bft) 89,36 %
01.01.2017 01:00 -2,8 C -2,2 C -3,3 C 93 % 0 lf 1024,8 hPa 0,0 l/m 0 min 0 min 0 W/m 18,8 km/h (3 Bft) 91,30 %
01.01.2017 01:02 -2,7 C -2,2 C -3,3 C 93 % 0 lf 1024,8 hPa 0,0 l/m 0 min 0 min 0 W/m 16,7 km/h (3 Bft) 89,58 %
01.01.2017 01:04 -2,7 C -2,2 C -3,3 C 93 % 0 lf 1024,9 hPa 0,0 l/m 0 min 0 min 0 W/m 14,6 km/h (3 Bft) 89,36 %
01.01.2017 01:06 -2,6 C -2,2 C -3,3 C 93 % 0 lf 1024,8 hPa 0,0 l/m 0 min 0 min 0 W/m 6,3 km/h (2 Bft) 91,49 %
01.01.2017 01:08 -2,6 C -2,2 C -3,3 C 93 % 0 lf 1024,7 hPa 0,0 l/m 0 min 0 min 0 W/m 12,6 km/h (3 Bft) 93,62 %
01.01.2017 01:10 -2,6 C -2,2 C -3,3 C 93 % 0 lf 1024,8 hPa 0,0 l/m 0 min 0 min 0 W/m 12,6 km/h (3 Bft) 93,62 %
01.01.2017 01:12 -2,6 C -2,2 C -3,3 C 93 % 0 lf 1024,8 hPa 0,0 l/m 0 min 0 min 0 W/m 12,6 km/h (3 Bft) 91,30 %
01.01.2017 01:14 -2,5 C -2,2 C -3,3 C 93 % 0 lf 1024,8 hPa 0,0 l/m 0 min 0 min 0 W/m 12,6 km/h (3 Bft) 91,49 %
01.01.2017 01:16 -2,5 C -2,2 C -3,3 C 94 % 0 lf 1024,7 hPa 0,0 l/m 0 min 0 min 0 W/m 14,6 km/h (3 Bft) 91,49 %
01.01.2017 01:18 -2,5 C -2,2 C -3,3 C 94 % 0 lf 1024,7 hPa 0,0 l/m 0 min 0 min 0 W/m 14,6 km/h (3 Bft) 91,49 %
01.01.2017 01:20 -2,4 C -2,2 C -3,3 C 94 % 0 lf 1024,6 hPa 0,0 l/m 0 min 0 min 0 W/m 12,6 km/h (3 Bft) 93,62 %
01.01.2017 01:22 -2,4 C -2,2 C -3,3 C 94 % 0 lf 1024,6 hPa 0,0 l/m 0 min 0 min 0 W/m 14,6 km/h (3 Bft) 91,49 %
01.01.2017 01:24 -2,4 C -2,2 C -3,3 C 94 % 0 lf 1024,5 hPa 0,0 l/m 0 min 0 min 0 W/m 10,5 km/h (2 Bft) 91,30 %
01.01.2017 01:26 -2,4 C -2,2 C -3,3 C 94 % 0 lf 1024,5 hPa 0,0 l/m 0 min 0 min 0 W/m 16,7 km/h (3 Bft) 95,74 %
01.01.2017 01:28 -2,4 C -2,2 C -3,3 C 94 % 0 lf 1024,4 hPa 0,0 l/m 0 min 0 min 0 W/m 12,6 km/h (3 Bft) 91,49 %
01.01.2017 01:30 -2,4 C -2,2 C -3,3 C 94 % 0 lf 1024,4 hPa 0,0 l/m 0 min 0 min 0 W/m 10,5 km/h (2 Bft) 95,74 %
01.01.2017 01:32 -2,4 C -2,2 C -3,3 C 94 % 0 lf 1024,5 hPa 0,0 l/m 0 min 0 min 0 W/m 14,6 km/h (3 Bft) 93,75 %
01.01.2017 01:34 -2,4 C -2,2 C -3,3 C 94 % 0 lf 1024,4 hPa 0,0 l/m 0 min 0 min 0 W/m 14,6 km/h (3 Bft) 97,87 %
01.01.2017 01:36 -2,4 C -2,2 C -3,3 C 94 % 0 lf 1024,4 hPa 0,0 l/m 0 min 0 min 0 W/m 18,8 km/h (3 Bft) 93,48 %
01.01.2017 01:38 -2,4 C -2,2 C -3,3 C 94 % 0 lf 1024,4 hPa 0,0 l/m 0 min 0 min 0 W/m 14,6 km/h (3 Bft) 97,87 %
01.01.2017 01:40 -2,4 C -2,2 C -3,3 C 94 % 0 lf 1024,4 hPa 0,0 l/m 0 min 0 min 0 W/m 12,6 km/h (3 Bft) 93,62 %
01.01.2017 01:42 -2,4 C -2,2 C -3,3 C 94 % 0 lf 1024,4 hPa 0,0 l/m 0 min 0 min 0 W/m 12,6 km/h (3 Bft) 97,87 %
01.01.2017 01:44 -2,4 C -2,2 C -3,3 C 94 % 0 lf 1024,4 hPa 0,0 l/m 0 min 0 min 0 W/m 12,6 km/h (3 Bft) 95,74 %
01.01.2017 01:46 -2,4 C -2,2 C -3,3 C 94 % 0 lf 1024,3 hPa 0,0 l/m 0 min 0 min 0 W/m 10,5 km/h (2 Bft) 97,83 %
01.01.2017 01:48 -2,4 C -2,2 C -3,3 C 94 % 0 lf 1024,3 hPa 0,0 l/m 0 min 0 min 0 W/m 8,4 km/h (2 Bft) 93,62 %
01.01.2017 01:50 -2,4 C -2,2 C -3,3 C 94 % 0 lf 1024,2 hPa 0,0 l/m 0 min 0 min 0 W/m 10,5 km/h (2 Bft) 97,87 %
01.01.2017 01:52 -2,4 C -2,2 C -3,3 C 94 % 0 lf 1024,2 hPa 0,0 l/m 0 min 0 min 0 W/m 10,5 km/h (2 Bft) 97,87 %
01.01.2017 01:54 -2,4 C -2,2 C -3,3 C 94 % 0 lf 1024,0 hPa 0,0 l/m 0 min 0 min 0 W/m 6,3 km/h (2 Bft) 97,87 %
01.01.2017 01:56 -2,4 C -2,2 C -3,3 C 94 % 0 lf 1024,1 hPa 0,0 l/m 0 min 0 min 0 W/m 12,6 km/h (3 Bft) 100,00 %
01.01.2017 01:58 -2,4 C -2,2 C -3,3 C 94 % 0 lf 1024,1 hPa 0,0 l/m 0 min 0 min 0 W/m 14,6 km/h (3 Bft) 95,65 %
01.01.2017 02:00 -2,3 C -2,2 C -3,3 C 94 % 0 lf 1024,3 hPa 0,0 l/m 0 min 0 min 0 W/m 12,6 km/h (3 Bft) 95,74 %
01.01.2017 02:02 -2,3 C -2,2 C -3,3 C 94 % 0 lf 1024,3 hPa 0,0 l/m 0 min 0 min 0 W/m 16,7 km/h (3 Bft) 94,44 %
01.01.2017 02:04 -2,3 C -2,2 C -3,3 C 95 % 0 lf 1024,1 hPa 0,0 l/m 0 min 0 min 0 W/m 12,6 km/h (3 Bft) 97,87 %
01.01.2017 02:06 -2,3 C -2,2 C -3,3 C 94 % 0 lf 1024,1 hPa 0,0 l/m 0 min 0 min 0 W/m 8,4 km/h (2 Bft) 95,74 %
01.01.2017 02:08 -2,3 C -2,2 C -3,3 C 94 % 0 lf 1024,3 hPa 0,0 l/m 0 min 0 min 0 W/m 6,3 km/h (2 Bft) 97,87 %
01.01.2017 02:10 -2,3 C -2,2 C -2,8 C 94 % 0 lf 1024,3 hPa 0,0 l/m 0 min 0 min 0 W/m 10,5 km/h (2 Bft) 95,74 %
01.01.2017 02:12 -2,3 C -2,2 C -2,8 C 94 % 0 lf 1024,4 hPa 0,0 l/m 0 min 0 min 0 W/m 12,6 km/h (3 Bft) 95,65 %
01.01.2017 02:14 -2,3 C -2,2 C -2,8 C 94 % 0 lf 1024,3 hPa 0,0 l/m 0 min 0 min 0 W/m 10,5 km/h (2 Bft) 100,00 %
01.01.2017 02:16 -2,3 C -1,7 C -2,8 C 94 % 0 lf 1024,3 hPa 0,0 l/m 0 min 0 min 0 W/m 12,6 km/h (3 Bft) 93,62 %
01.01.2017 02:18 -2,3 C -1,7 C -2,8 C 95 % 0 lf 1024,3 hPa 0,0 l/m 0 min 0 min 0 W/m 10,5 km/h (2 Bft) 97,87 %
01.01.2017 02:20 -2,3 C -1,7 C -2,8 C 95 % 0 lf 1024,2 hPa 0,0 l/m 0 min 0 min 0 W/m 12,6 km/h (3 Bft) 100,00 %
01.01.2017 02:22 -2,3 C -1,7 C -2,8 C 95 % 0 lf 1024,3 hPa 0,0 l/m 0 min 0 min 0 W/m 12,6 km/h (3 Bft) 97,87 %
01.01.2017 02:24 -2,3 C -1,7 C -2,8 C 95 % 0 lf 1024,3 hPa 0,0 l/m 0 min 0 min 0 W/m 10,5 km/h (2 Bft) 97,83 %
01.01.2017 02:26 -2,2 C -1,7 C -2,8 C 95 % 0 lf 1024,1 hPa 0,0 l/m 0 min 0 min 0 W/m 8,4 km/h (2 Bft) 100,00 %
01.01.2017 02:28 -2,2 C -1,7 C -2,8 C 95 % 0 lf 1024,1 hPa 0,0 l/m 0 min 0 min 0 W/m 8,4 km/h (2 Bft) 91,49 %
01.01.2017 02:30 -2,2 C -1,7 C -2,8 C 95 % 0 lf 1024,1 hPa 0,0 l/m 0 min 0 min 0 W/m 10,5 km/h (2 Bft) 97,87 %
01.01.2017 02:32 -2,2 C -1,7 C -2,8 C 95 % 0 lf 1024,1 hPa 0,0 l/m 0 min 0 min 0 W/m 8,4 km/h (2 Bft) 96,30 %
01.01.2017 02:34 -2,2 C -1,7 C -2,8 C 95 % 0 lf 1024,1 hPa 0,0 l/m 0 min 0 min 0 W/m 10,5 km/h (2 Bft) 97,83 %
01.01.2017 02:36 -2,2 C -1,7 C -2,8 C 95 % 0 lf 1024,2 hPa 0,0 l/m 0 min 0 min 0 W/m 10,5 km/h (2 Bft) 100,00 %
01.01.2017 02:38 -2,2 C -1,7 C -2,8 C 95 % 0 lf 1024,1 hPa 0,0 l/m 0 min 0 min 0 W/m 6,3 km/h (2 Bft) 100,00 %
01.01.2017 02:40 -2,2 C -1,7 C -2,8 C 95 % 0 lf 1024,1 hPa 0,0 l/m 0 min 0 min 0 W/m 8,4 km/h (2 Bft) 97,87 %
01.01.2017 02:42 -2,2 C -1,7 C -2,8 C 95 % 0 lf 1024,1 hPa 0,0 l/m 0 min 0 min 0 W/m 4,2 km/h (1 Bft) 95,74 %
01.01.2017 02:44 -2,2 C -1,7 C -2,8 C 95 % 0 lf 1024,0 hPa 0,0 l/m 0 min 0 min 0 W/m 6,3 km/h (2 Bft) 97,87 %
01.01.2017 02:46 -2,2 C -1,7 C -2,8 C 95 % 0 lf 1024,0 hPa 0,0 l/m 0 min 0 min 0 W/m 6,3 km/h (2 Bft) 91,30 %
01.01.2017 02:48 -2,2 C -1,7 C -2,8 C 95 % 0 lf 1023,9 hPa 0,0 l/m 0 min 0 min 0 W/m 6,3 km/h (2 Bft) 95,74 %
01.01.2017 02:50 -2,2 C -1,7 C -2,8 C 95 % 0 lf 1023,8 hPa 0,0 l/m 0 min 0 min 0 W/m 10,5 km/h (2 Bft) 95,74 %
01.01.2017 02:52 -2,2 C -1,7 C -2,8 C 95 % 0 lf 1023,8 hPa 0,0 l/m 0 min 0 min 0 W/m 10,5 km/h (2 Bft) 98,00 %
01.01.2017 02:54 -2,2 C -1,7 C -2,8 C 95 % 0 lf 1023,9 hPa 0,0 l/m 0 min 0 min 0 W/m 6,3 km/h (2 Bft) 95,74 %
01.01.2017 02:56 -2,2 C -1,7 C -2,8 C 95 % 0 lf 1023,8 hPa 0,0 l/m 0 min 0 min 0 W/m 8,4 km/h (2 Bft) 95,65 %
01.01.2017 02:58 -2,2 C -1,7 C -2,8 C 95 % 0 lf 1023,9 hPa 0,0 l/m 0 min 0 min 0 W/m 8,4 km/h (2 Bft) 95,74 %
01.01.2017 03:00 -2,2 C -1,7 C -2,8 C 95 % 0 lf 1023,9 hPa 0,0 l/m 0 min 0 min 0 W/m 8,4 km/h (2 Bft) 91,49 %
01.01.2017 03:02 -2,1 C -1,7 C -2,8 C 95 % 0 lf 1023,9 hPa 0,0 l/m 0 min 0 min 0 W/m 8,4 km/h (2 Bft) 93,75 %
01.01.2017 03:04 -2,1 C -1,7 C -2,8 C 95 % 0 lf 1023,9 hPa 0,0 l/m 0 min 0 min 0 W/m 10,5 km/h (2 Bft) 95,74 %
01.01.2017 03:06 -2,1 C -1,7 C -2,8 C 95 % 0 lf 1023,8 hPa 0,0 l/m 0 min 0 min 0 W/m 8,4 km/h (2 Bft) 95,74 %
01.01.2017 03:08 -2,1 C -1,7 C -2,8 C 95 % 0 lf 1023,8 hPa 0,0 l/m 0 min 0 min 0 W/m 6,3 km/h (2 Bft) 95,65 %
01.01.2017 03:10 -2,1 C -1,7 C -2,8 C 95 % 0 lf 1023,8 hPa 0,0 l/m 0 min 0 min 0 W/m 6,3 km/h (2 Bft) 87,23 %
01.01.2017 03:12 -2,1 C -1,7 C -2,8 C 95 % 0 lf 1023,8 hPa 0,0 l/m 0 min 0 min 0 W/m 10,5 km/h (2 Bft) 97,87 %
01.01.2017 03:14 -2,1 C -1,7 C -2,8 C 95 % 0 lf 1023,7 hPa 0,0 l/m 0 min 0 min 0 W/m 10,5 km/h (2 Bft) 97,87 %
01.01.2017 03:16 -2,1 C -1,7 C -2,8 C 95 % 0 lf 1023,7 hPa 0,0 l/m 0 min 0 min 0 W/m 6,3 km/h (2 Bft) 97,87 %
01.01.2017 03:18 -2,1 C -1,7 C -2,8 C 95 % 0 lf 1023,7 hPa 0,0 l/m 0 min 0 min 0 W/m 8,4 km/h (2 Bft) 91,49 %
01.01.2017 03:20 -2,1 C -1,7 C -2,8 C 95 % 0 lf 1023,5 hPa 0,0 l/m 0 min 0 min 0 W/m 8,4 km/h (2 Bft) 93,48 %
01.01.2017 03:22 -2,1 C -1,7 C -2,8 C 95 % 0 lf 1023,6 hPa 0,0 l/m 0 min 0 min 0 W/m 8,4 km/h (2 Bft) 97,87 %
01.01.2017 03:24 -2,1 C -1,7 C -2,8 C 95 % 0 lf 1023,4 hPa 0,0 l/m 0 min 0 min 0 W/m 10,5 km/h (2 Bft) 93,62 %
01.01.2017 03:26 -2,1 C -1,7 C -2,8 C 95 % 0 lf 1023,5 hPa 0,0 l/m 0 min 0 min 0 W/m 10,5 km/h (2 Bft) 93,62 %
01.01.2017 03:28 -2,1 C -1,7 C -2,8 C 95 % 0 lf 1023,4 hPa 0,0 l/m 0 min 0 min 0 W/m 10,5 km/h (2 Bft) 97,87 %
01.01.2017 03:30 -2,1 C -1,7 C -2,8 C 95 % 0 lf 1023,3 hPa 0,0 l/m 0 min 0 min 0 W/m 10,5 km/h (2 Bft) 93,62 %
01.01.2017 03:32 -2,1 C -1,7 C -2,8 C 95 % 0 lf 1023,3 hPa 0,0 l/m 0 min 0 min 0 W/m 12,6 km/h (3 Bft) 95,65 %
01.01.2017 03:34 -2,1 C -1,7 C -2,8 C 95 % 0 lf 1023,3 hPa 0,0 l/m 0 min 0 min 0 W/m 16,7 km/h (3 Bft) 93,62 %
01.01.2017 03:36 -2,1 C -1,7 C -2,8 C 95 % 0 lf 1023,3 hPa 0,0 l/m 0 min 0 min 0 W/m 12,6 km/h (3 Bft) 93,62 %
01.01.2017 03:38 -2,1 C -1,7 C -2,8 C 95 % 0 lf 1023,3 hPa 0,0 l/m 0 min 0 min 0 W/m 10,5 km/h (2 Bft) 95,74 %
01.01.2017 03:40 -2,1 C -1,7 C -2,8 C 95 % 0 lf 1023,3 hPa 0,0 l/m 0 min 0 min 0 W/m 10,5 km/h (2 Bft) 100,00 %
01.01.2017 03:42 -2,1 C -1,7 C -2,8 C 95 % 0 lf 1023,3 hPa 0,0 l/m 0 min 0 min 0 W/m 10,5 km/h (2 Bft) 93,62 %
01.01.2017 03:44 -2,1 C -1,7 C -2,8 C 95 % 0 lf 1023,3 hPa 0,0 l/m 0 min 0 min 0 W/m 12,6 km/h (3 Bft) 97,83 %
01.01.2017 03:46 -2,1 C -1,7 C -2,8 C 95 % 0 lf 1023,3 hPa 0,0 l/m 0 min 0 min 0 W/m 14,6 km/h (3 Bft) 97,87 %
01.01.2017 03:48 -2,1 C -1,7 C -2,8 C 95 % 0 lf 1023,2 hPa 0,0 l/m 0 min 0 min 0 W/m 18,8 km/h (3 Bft) 97,87 %
01.01.2017 03:50 -2,0 C -1,7 C -2,8 C 95 % 0 lf 1023,2 hPa 0,0 l/m 0 min 0 min 0 W/m 14,6 km/h (3 Bft) 93,62 %
01.01.2017 03:52 -2,0 C -1,7 C -2,8 C 95 % 0 lf 1023,2 hPa 0,0 l/m 0 min 0 min 0 W/m 12,6 km/h (3 Bft) 93,62 %
01.01.2017 03:54 -2,0 C -1,7 C -2,8 C 95 % 0 lf 1023,1 hPa 0,0 l/m 0 min 0 min 0 W/m 8,4 km/h (2 Bft) 97,83 %
01.01.2017 03:56 -2,0 C -1,7 C -2,8 C 95 % 0 lf 1023,0 hPa 0,0 l/m 0 min 0 min 0 W/m 10,5 km/h (2 Bft) 95,74 %
01.01.2017 03:58 -2,0 C -1,7 C -2,8 C 95 % 0 lf 1023,1 hPa 0,0 l/m 0 min 0 min 0 W/m 10,5 km/h (2 Bft) 97,87 %
01.01.2017 04:00 -2,0 C -1,7 C -2,8 C 95 % 0 lf 1023,0 hPa 0,0 l/m 0 min 0 min 0 W/m 14,6 km/h (3 Bft) 97,87 %
01.01.2017 04:05 -1,9 C -1,7 C -2,8 C 95 % 0 lf 1022,8 hPa 0,0 l/m 0 min 0 min 0 W/m 14,6 km/h (3 Bft) 92,31 %
01.01.2017 04:06 -1,9 C -1,7 C -2,8 C 95 % 0 lf 1022,8 hPa 0,0 l/m 0 min 0 min 0 W/m 12,6 km/h (3 Bft) 100,00 %
01.01.2017 04:08 -1,9 C -1,7 C -2,8 C 96 % 0 lf 1022,9 hPa 0,0 l/m 0 min 0 min 0 W/m 14,6 km/h (3 Bft) 97,83 %
01.01.2017 04:10 -1,9 C -1,7 C -2,8 C 96 % 0 lf 1022,9 hPa 0,0 l/m 0 min 0 min 0 W/m 10,5 km/h (2 Bft) 97,87 %
01.01.2017 04:12 -1,9 C -1,7 C -2,8 C 96 % 0 lf 1022,8 hPa 0,0 l/m 0 min 0 min 0 W/m 10,5 km/h (2 Bft) 95,74 %
01.01.2017 04:14 -1,9 C -1,7 C -2,8 C 96 % 0 lf 1022,8 hPa 0,0 l/m 0 min 0 min 0 W/m 14,6 km/h (3 Bft) 95,74 %
01.01.2017 04:16 -1,9 C -1,7 C -2,8 C 96 % 0 lf 1022,7 hPa 0,0 l/m 0 min 0 min 0 W/m 14,6 km/h (3 Bft) 97,87 %
01.01.2017 04:18 -1,9 C -1,7 C -2,8 C 96 % 0 lf 1022,7 hPa 0,0 l/m 0 min 0 min 0 W/m 14,6 km/h (3 Bft) 93,62 %
01.01.2017 04:20 -1,9 C -1,7 C -2,8 C 96 % 0 lf 1022,6 hPa 0,0 l/m 0 min 0 min 0 W/m 12,6 km/h (3 Bft) 97,83 %
01.01.2017 04:22 -1,8 C -1,7 C -2,8 C 96 % 0 lf 1022,6 hPa 0,0 l/m 0 min 0 min 0 W/m 16,7 km/h (3 Bft) 95,74 %
01.01.2017 04:24 -1,8 C -1,1 C -2,8 C 96 % 0 lf 1022,5 hPa 0,0 l/m 0 min 0 min 0 W/m 18,8 km/h (3 Bft) 97,87 %
01.01.2017 04:26 -1,8 C -1,1 C -2,8 C 96 % 0 lf 1022,5 hPa 0,0 l/m 0 min 0 min 0 W/m 14,6 km/h (3 Bft) 97,87 %
01.01.2017 04:28 -1,8 C -1,1 C -2,8 C 96 % 0 lf 1022,5 hPa 0,0 l/m 0 min 0 min 0 W/m 20,9 km/h (4 Bft) 95,74 %
01.01.2017 04:30 -1,8 C -1,1 C -2,8 C 96 % 0 lf 1022,5 hPa 0,0 l/m 0 min 0 min 0 W/m 10,5 km/h (2 Bft) 89,36 %
01.01.2017 04:32 -1,8 C -1,1 C -2,8 C 96 % 0 lf 1022,5 hPa 0,0 l/m 0 min 0 min 0 W/m 12,6 km/h (3 Bft) 93,48 %
01.01.2017 04:34 -1,8 C -1,1 C -2,8 C 96 % 0 lf 1022,4 hPa 0,0 l/m 0 min 0 min 0 W/m 10,5 km/h (2 Bft) 93,62 %
01.01.2017 04:36 -1,8 C -1,1 C -2,8 C 96 % 0 lf 1022,4 hPa 0,0 l/m 0 min 0 min 0 W/m 10,5 km/h (2 Bft) 98,11 %
01.01.2017 04:38 -1,8 C -1,1 C -2,2 C 96 % 0 lf 1022,4 hPa 0,0 l/m 0 min 0 min 0 W/m 14,6 km/h (3 Bft) 97,87 %
01.01.2017 04:40 -1,8 C -1,1 C -2,2 C 96 % 0 lf 1022,4 hPa 0,0 l/m 0 min 0 min 0 W/m 10,5 km/h (2 Bft) 95,74 %
01.01.2017 04:42 -1,8 C -1,1 C -2,2 C 96 % 0 lf 1022,4 hPa 0,0 l/m 0 min 0 min 0 W/m 10,5 km/h (2 Bft) 95,12 %
01.01.2017 04:44 -1,8 C -1,1 C -2,2 C 96 % 0 lf 1022,4 hPa 0,0 l/m 0 min 0 min 0 W/m 20,9 km/h (4 Bft) 100,00 %
01.01.2017 04:46 -1,8 C -1,1 C -2,2 C 96 % 0 lf 1022,4 hPa 0,0 l/m 0 min 0 min 0 W/m 16,7 km/h (3 Bft) 97,87 %
01.01.2017 04:48 -1,8 C -1,1 C -2,2 C 96 % 0 lf 1022,4 hPa 0,0 l/m 0 min 0 min 0 W/m 12,6 km/h (3 Bft) 95,74 %
01.01.2017 04:50 -1,8 C -1,1 C -2,2 C 96 % 0 lf 1022,4 hPa 0,0 l/m 0 min 0 min 0 W/m 12,6 km/h (3 Bft) 96,23 %
01.01.2017 04:52 -1,8 C -1,1 C -2,2 C 96 % 0 lf 1022,4 hPa 0,0 l/m 0 min 0 min 0 W/m 14,6 km/h (3 Bft) 97,87 %
01.01.2017 04:54 -1,8 C -1,1 C -2,2 C 96 % 0 lf 1022,4 hPa 0,0 l/m 0 min 0 min 0 W/m 8,4 km/h (2 Bft) 100,00 %
01.01.2017 04:56 -1,8 C -1,1 C -2,2 C 96 % 0 lf 1022,3 hPa 0,0 l/m 0 min 0 min 0 W/m 12,6 km/h (3 Bft) 97,87 %
01.01.2017 04:58 -1,8 C -1,1 C -2,2 C 96 % 0 lf 1022,3 hPa 0,0 l/m 0 min 0 min 0 W/m 12,6 km/h (3 Bft) 97,56 %
01.01.2017 05:00 -1,8 C -1,1 C -2,2 C 96 % 0 lf 1022,2 hPa 0,0 l/m 0 min 0 min 0 W/m 14,6 km/h (3 Bft) 95,74 %
01.01.2017 05:02 -1,8 C -1,1 C -2,2 C 96 % 0 lf 1022,2 hPa 0,0 l/m 0 min 0 min 0 W/m 14,6 km/h (3 Bft) 100,00 %
01.01.2017 05:04 -1,8 C -1,1 C -2,2 C 96 % 0 lf 1022,2 hPa 0,0 l/m 0 min 0 min 0 W/m 8,4 km/h (2 Bft) 100,00 %
01.01.2017 05:06 -1,8 C -1,1 C -2,2 C 96 % 0 lf 1022,2 hPa 0,0 l/m 0 min 0 min 0 W/m 8,4 km/h (2 Bft) 98,08 %
01.01.2017 05:08 -1,8 C -1,7 C -2,2 C 96 % 0 lf 1022,2 hPa 0,0 l/m 0 min 0 min 0 W/m 8,4 km/h (2 Bft) 100,00 %
01.01.2017 05:10 -1,8 C -1,7 C -2,8 C 96 % 0 lf 1022,2 hPa 0,0 l/m 0 min 0 min 0 W/m 8,4 km/h (2 Bft) 95,16 %
01.01.2017 05:12 -1,8 C -1,7 C -2,8 C 96 % 0 lf 1022,1 hPa 0,0 l/m 0 min 0 min 0 W/m 10,5 km/h (2 Bft) 100,00 %
01.01.2017 05:14 -1,8 C -1,7 C -2,8 C 96 % 0 lf 1022,1 hPa 0,0 l/m 0 min 0 min 0 W/m 8,4 km/h (2 Bft) 97,87 %
01.01.2017 05:16 -1,9 C -1,7 C -2,8 C 96 % 0 lf 1022,1 hPa 0,0 l/m 0 min 0 min 0 W/m 10,5 km/h (2 Bft) 97,83 %
01.01.2017 05:18 -1,9 C -1,7 C -2,8 C 96 % 0 lf 1022,1 hPa 0,0 l/m 0 min 0 min 0 W/m 10,5 km/h (2 Bft) 95,74 %
01.01.2017 05:20 -1,9 C -1,7 C -2,8 C 96 % 0 lf 1022,0 hPa 0,0 l/m 0 min 0 min 0 W/m 12,6 km/h (3 Bft) 97,87 %
01.01.2017 05:22 -1,9 C -2,2 C -2,8 C 96 % 0 lf 1022,0 hPa 0,0 l/m 0 min 0 min 0 W/m 14,6 km/h (3 Bft) 97,87 %
01.01.2017 05:24 -2,0 C -2,2 C -2,8 C 96 % 0 lf 1022,1 hPa 0,0 l/m 0 min 0 min 0 W/m 14,6 km/h (3 Bft) 97,87 %
01.01.2017 05:26 -2,1 C -2,2 C -2,8 C 96 % 0 lf 1022,0 hPa 0,0 l/m 0 min 0 min 0 W/m 12,6 km/h (3 Bft) 93,62 %
01.01.2017 05:28 -2,1 C -2,2 C -2,8 C 96 % 0 lf 1021,9 hPa 0,0 l/m 0 min 0 min 0 W/m 14,6 km/h (3 Bft) 95,65 %
01.01.2017 05:30 -2,2 C -2,2 C -3,3 C 96 % 0 lf 1021,9 hPa 0,0 l/m 0 min 0 min 0 W/m 10,5 km/h (2 Bft) 93,62 %
01.01.2017 05:32 -2,2 C -2,2 C -3,3 C 96 % 0 lf 1021,9 hPa 0,0 l/m 0 min 0 min 0 W/m 14,6 km/h (3 Bft) 93,88 %
01.01.2017 05:34 -2,2 C -2,2 C -3,3 C 96 % 0 lf 1021,9 hPa 0,0 l/m 0 min 0 min 0 W/m 14,6 km/h (3 Bft) 95,74 %
01.01.2017 05:36 -2,2 C -2,2 C -3,3 C 96 % 0 lf 1021,9 hPa 0,0 l/m 0 min 0 min 0 W/m 16,7 km/h (3 Bft) 94,44 %
01.01.2017 05:38 -2,3 C -2,2 C -3,3 C 95 % 0 lf 1021,8 hPa 0,0 l/m 0 min 0 min 0 W/m 20,9 km/h (4 Bft) 93,62 %
01.01.2017 05:40 -2,3 C -2,2 C -3,3 C 95 % 0 lf 1021,8 hPa 0,0 l/m 0 min 0 min 0 W/m 14,6 km/h (3 Bft) 89,36 %
01.01.2017 05:42 -2,3 C -2,2 C -3,3 C 95 % 0 lf 1021,8 hPa 0,0 l/m 0 min 0 min 0 W/m 14,6 km/h (3 Bft) 93,48 %
01.01.2017 05:44 -2,3 C -2,2 C -3,3 C 95 % 0 lf 1021,8 hPa 0,0 l/m 0 min 0 min 0 W/m 20,9 km/h (4 Bft) 93,62 %
01.01.2017 05:46 -2,3 C -2,2 C -3,3 C 95 % 0 lf 1021,7 hPa 0,0 l/m 0 min 0 min 0 W/m 12,6 km/h (3 Bft) 91,49 %
01.01.2017 05:48 -2,4 C -2,2 C -3,3 C 95 % 0 lf 1021,7 hPa 0,0 l/m 0 min 0 min 0 W/m 12,6 km/h (3 Bft) 95,74 %
01.01.2017 05:50 -2,4 C -2,2 C -3,3 C 95 % 0 lf 1021,7 hPa 0,0 l/m 0 min 0 min 0 W/m 16,7 km/h (3 Bft) 93,62 %
01.01.2017 05:52 -2,4 C -2,2 C -3,3 C 95 % 0 lf 1021,7 hPa 0,0 l/m 0 min 0 min 0 W/m 14,6 km/h (3 Bft) 93,62 %
01.01.2017 05:54 -2,4 C -2,2 C -3,3 C 95 % 0 lf 1021,7 hPa 0,0 l/m 0 min 0 min 0 W/m 14,6 km/h (3 Bft) 91,30 %
01.01.2017 05:56 -2,4 C -2,2 C -3,3 C 95 % 0 lf 1021,7 hPa 0,0 l/m 0 min 0 min 0 W/m 14,6 km/h (3 Bft) 93,62 %
01.01.2017 05:58 -2,5 C -2,2 C -3,3 C 95 % 0 lf 1021,6 hPa 0,0 l/m 0 min 0 min 0 W/m 14,6 km/h (3 Bft) 95,74 %
01.01.2017 06:00 -2,5 C -2,2 C -3,3 C 95 % 0 lf 1021,6 hPa 0,0 l/m 0 min 0 min 0 W/m 12,6 km/h (3 Bft) 95,74 %
01.01.2017 06:02 -2,5 C -2,2 C -3,3 C 95 % 0 lf 1021,6 hPa 0,0 l/m 0 min 0 min 0 W/m 12,6 km/h (3 Bft) 93,62 %
01.01.2017 06:04 -2,6 C -2,2 C -3,3 C 95 % 0 lf 1021,5 hPa 0,0 l/m 0 min 0 min 0 W/m 12,6 km/h (3 Bft) 95,74 %
01.01.2017 06:06 -2,6 C -2,2 C -3,3 C 95 % 0 lf 1021,6 hPa 0,0 l/m 0 min 0 min 0 W/m 18,8 km/h (3 Bft) 96,15 %
01.01.2017 06:08 -2,6 C -2,2 C -3,3 C 95 % 0 lf 1021,5 hPa 0,0 l/m 0 min 0 min 0 W/m 14,6 km/h (3 Bft) 95,74 %
01.01.2017 06:10 -2,6 C -2,2 C -3,3 C 95 % 0 lf 1021,5 hPa 0,0 l/m 0 min 0 min 0 W/m 14,6 km/h (3 Bft) 93,62 %
01.01.2017 06:12 -2,6 C -2,2 C -3,3 C 95 % 0 lf 1021,5 hPa 0,0 l/m 0 min 0 min 0 W/m 14,6 km/h (3 Bft) 97,87 %
01.01.2017 06:14 -2,6 C -2,2 C -3,3 C 95 % 0 lf 1021,5 hPa 0,0 l/m 0 min 0 min 0 W/m 18,8 km/h (3 Bft) 97,87 %
01.01.2017 06:16 -2,7 C -2,2 C -3,3 C 95 % 0 lf 1021,5 hPa 0,0 l/m 0 min 0 min 0 W/m 14,6 km/h (3 Bft) 90,00 %
01.01.2017 06:18 -2,7 C -2,2 C -3,3 C 95 % 0 lf 1021,4 hPa 0,0 l/m 0 min 0 min 0 W/m 12,6 km/h (3 Bft) 97,87 %
01.01.2017 06:20 -2,7 C -2,2 C -3,3 C 95 % 0 lf 1021,4 hPa 0,0 l/m 0 min 0 min 0 W/m 10,5 km/h (2 Bft) 92,45 %
01.01.2017 06:22 -2,7 C -2,2 C -3,3 C 95 % 0 lf 1021,3 hPa 0,0 l/m 0 min 0 min 0 W/m 12,6 km/h (3 Bft) 93,62 %
01.01.2017 06:24 -2,7 C -2,2 C -3,3 C 95 % 0 lf 1021,3 hPa 0,0 l/m 0 min 0 min 0 W/m 10,5 km/h (2 Bft) 95,12 %
01.01.2017 06:26 -2,8 C -2,8 C -3,9 C 95 % 0 lf 1021,3 hPa 0,2 l/m 0 min 0 min 0 W/m 14,6 km/h (3 Bft) 93,62 %
01.01.2017 06:28 -2,8 C -2,8 C -3,3 C 95 % 0 lf 1021,3 hPa 0,0 l/m 0 min 0 min 0 W/m 14,6 km/h (3 Bft) 91,30 %
01.01.2017 06:30 -2,8 C -2,8 C -3,9 C 95 % 0 lf 1021,3 hPa 0,0 l/m 0 min 0 min 0 W/m 12,6 km/h (3 Bft) 95,74 %
01.01.2017 06:32 -2,8 C -2,8 C -3,9 C 95 % 0 lf 1021,3 hPa 0,0 l/m 0 min 0 min 0 W/m 16,7 km/h (3 Bft) 94,44 %
01.01.2017 06:34 -2,9 C -2,8 C -3,3 C 95 % 0 lf 1021,2 hPa 0,0 l/m 0 min 0 min 0 W/m 8,4 km/h (2 Bft) 95,74 %
01.01.2017 06:36 -2,9 C -2,8 C -3,3 C 95 % 0 lf 1021,2 hPa 0,0 l/m 0 min 0 min 0 W/m 14,6 km/h (3 Bft) 94,00 %
01.01.2017 06:38 -2,9 C -2,8 C -3,3 C 95 % 0 lf 1021,2 hPa 0,0 l/m 0 min 0 min 0 W/m 10,5 km/h (2 Bft) 97,83 %
01.01.2017 06:40 -2,9 C -2,8 C -3,3 C 95 % 0 lf 1021,2 hPa 0,0 l/m 0 min 0 min 0 W/m 16,7 km/h (3 Bft) 95,74 %
01.01.2017 06:42 -2,9 C -2,8 C -3,3 C 95 % 0 lf 1021,1 hPa 0,0 l/m 0 min 0 min 0 W/m 14,6 km/h (3 Bft) 95,74 %
01.01.2017 06:44 -2,9 C -2,8 C -3,3 C 95 % 0 lf 1021,1 hPa 0,0 l/m 0 min 0 min 0 W/m 18,8 km/h (3 Bft) 95,74 %
01.01.2017 06:46 -3,0 C -2,8 C -3,3 C 95 % 0 lf 1021,0 hPa 0,0 l/m 0 min 0 min 0 W/m 14,6 km/h (3 Bft) 93,62 %
01.01.2017 06:48 -3,0 C -2,8 C -3,3 C 95 % 0 lf 1020,9 hPa 0,0 l/m 0 min 0 min 0 W/m 14,6 km/h (3 Bft) 97,87 %
01.01.2017 06:50 -3,0 C -2,8 C -3,3 C 95 % 0 lf 1020,9 hPa 0,0 l/m 0 min 0 min 0 W/m 23,0 km/h (4 Bft) 93,48 %
01.01.2017 06:52 -3,0 C -2,8 C -3,3 C 95 % 0 lf 1020,9 hPa 0,0 l/m 0 min 0 min 0 W/m 16,7 km/h (3 Bft) 95,74 %
01.01.2017 06:54 -3,0 C -2,8 C -3,3 C 95 % 0 lf 1020,9 hPa 0,0 l/m 0 min 0 min 0 W/m 12,6 km/h (3 Bft) 97,87 %
01.01.2017 06:56 -3,0 C -2,8 C -3,3 C 95 % 0 lf 1021,0 hPa 0,0 l/m 0 min 0 min 0 W/m 16,7 km/h (3 Bft) 95,74 %
01.01.2017 06:58 -3,0 C -2,8 C -3,3 C 95 % 0 lf 1021,0 hPa 0,0 l/m 0 min 0 min 0 W/m 16,7 km/h (3 Bft) 95,74 %
01.01.2017 07:00 -3,0 C -2,8 C -3,3 C 95 % 0 lf 1020,9 hPa 0,0 l/m 0 min 0 min 0 W/m 16,7 km/h (3 Bft) 95,65 %
01.01.2017 07:02 -3,0 C -2,8 C -3,9 C 95 % 0 lf 1020,9 hPa 0,0 l/m 0 min 0 min 0 W/m 16,7 km/h (3 Bft) 93,62 %
01.01.2017 07:04 -3,0 C -2,8 C -3,3 C 95 % 0 lf 1020,9 hPa 0,0 l/m 0 min 0 min 0 W/m 14,6 km/h (3 Bft) 97,87 %
01.01.2017 07:06 -3,0 C -2,8 C -3,3 C 95 % 0 lf 1020,8 hPa 0,0 l/m 0 min 0 min 0 W/m 12,6 km/h (3 Bft) 97,87 %
01.01.2017 07:08 -3,1 C -2,2 C -3,3 C 95 % 0 lf 1020,7 hPa 0,0 l/m 0 min 0 min 0 W/m 14,6 km/h (3 Bft) 97,87 %
01.01.2017 07:10 -3,0 C -2,2 C -3,3 C 95 % 0 lf 1020,7 hPa 0,0 l/m 0 min 0 min 0 W/m 16,7 km/h (3 Bft) 97,87 %
01.01.2017 07:12 -3,0 C -2,8 C -3,3 C 95 % 0 lf 1020,7 hPa 0,0 l/m 0 min 0 min 0 W/m 18,8 km/h (3 Bft) 97,83 %
01.01.2017 07:14 -3,0 C -2,8 C -3,3 C 95 % 0 lf 1020,7 hPa 0,0 l/m 0 min 0 min 0 W/m 14,6 km/h (3 Bft) 95,74 %
01.01.2017 07:16 -3,0 C -2,8 C -3,3 C 95 % 0 lf 1020,7 hPa 0,0 l/m 0 min 0 min 0 W/m 14,6 km/h (3 Bft) 97,87 %
01.01.2017 07:18 -3,0 C -2,2 C -3,3 C 95 % 0 lf 1020,8 hPa 0,0 l/m 0 min 0 min 0 W/m 10,5 km/h (2 Bft) 91,49 %
01.01.2017 07:20 -3,0 C -2,2 C -3,3 C 95 % 0 lf 1020,7 hPa 0,0 l/m 0 min 0 min 0 W/m 14,6 km/h (3 Bft) 97,87 %
01.01.2017 07:22 -3,0 C -2,8 C -3,3 C 95 % 0 lf 1020,8 hPa 0,0 l/m 0 min 0 min 0 W/m 14,6 km/h (3 Bft) 97,87 %
01.01.2017 07:24 -3,0 C -2,2 C -3,3 C 95 % 0 lf 1020,7 hPa 0,0 l/m 0 min 0 min 0 W/m 10,5 km/h (2 Bft) 97,83 %
01.01.2017 07:26 -3,0 C -2,2 C -3,3 C 95 % 0 lf 1020,7 hPa 0,0 l/m 0 min 0 min 0 W/m 16,7 km/h (3 Bft) 95,74 %
01.01.2017 07:28 -3,0 C -2,8 C -3,3 C 95 % 0 lf 1020,7 hPa 0,0 l/m 0 min 0 min 0 W/m 14,6 km/h (3 Bft) 97,87 %
01.01.2017 07:30 -3,0 C -2,8 C -3,3 C 95 % 0 lf 1020,6 hPa 0,0 l/m 0 min 0 min 0 W/m 14,6 km/h (3 Bft) 95,74 %
01.01.2017 07:32 -3,0 C -2,8 C -3,3 C 95 % 0 lf 1020,6 hPa 0,0 l/m 0 min 0 min 0 W/m 16,7 km/h (3 Bft) 93,75 %
01.01.2017 07:34 -3,0 C -2,8 C -3,3 C 95 % 0 lf 1020,6 hPa 0,0 l/m 0 min 0 min 0 W/m 12,6 km/h (3 Bft) 93,62 %
01.01.2017 07:36 -3,0 C -2,8 C -3,3 C 95 % 0 lf 1020,6 hPa 0,0 l/m 0 min 0 min 0 W/m 18,8 km/h (3 Bft) 97,22 %
01.01.2017 07:38 -3,0 C -2,8 C -3,3 C 94 % 0 lf 1020,6 hPa 0,0 l/m 0 min 0 min 0 W/m 14,6 km/h (3 Bft) 97,83 %
01.01.2017 07:40 -3,0 C -2,2 C -3,3 C 94 % 0 lf 1020,6 hPa 0,0 l/m 0 min 0 min 0 W/m 16,7 km/h (3 Bft) 97,87 %
01.01.2017 07:42 -3,0 C -2,2 C -3,3 C 94 % 0 lf 1020,6 hPa 0,0 l/m 0 min 0 min 0 W/m 14,6 km/h (3 Bft) 97,87 %
01.01.2017 07:44 -3,0 C -2,2 C -3,3 C 94 % 0 lf 1020,6 hPa 0,0 l/m 0 min 0 min 0 W/m 14,6 km/h (3 Bft) 100,00 %
01.01.2017 07:46 -3,0 C -2,2 C -3,3 C 95 % 0 lf 1020,6 hPa 0,0 l/m 0 min 0 min 0 W/m 12,6 km/h (3 Bft) 100,00 %
01.01.2017 07:48 -3,0 C -2,2 C -3,3 C 95 % 0 lf 1020,6 hPa 0,0 l/m 0 min 0 min 0 W/m 12,6 km/h (3 Bft) 97,87 %
01.01.2017 07:50 -3,0 C -2,2 C -3,3 C 95 % 0 lf 1020,5 hPa 0,0 l/m 0 min 0 min 0 W/m 12,6 km/h (3 Bft) 100,00 %
01.01.2017 07:52 -3,0 C -2,2 C -3,3 C 94 % 0 lf 1020,5 hPa 0,0 l/m 0 min 0 min 0 W/m 12,6 km/h (3 Bft) 95,74 %
01.01.2017 07:54 -2,9 C -2,2 C -3,3 C 94 % 0 lf 1020,5 hPa 0,0 l/m 0 min 0 min 0 W/m 14,6 km/h (3 Bft) 97,87 %
01.01.2017 07:56 -2,9 C -2,2 C -3,3 C 94 % 0 lf 1020,5 hPa 0,0 l/m 0 min 0 min 0 W/m 16,7 km/h (3 Bft) 100,00 %
01.01.2017 07:58 -2,9 C -2,2 C -3,3 C 94 % 0 lf 1020,5 hPa 0,0 l/m 0 min 0 min 0 W/m 12,6 km/h (3 Bft) 95,74 %
01.01.2017 08:00 -2,9 C -2,2 C -3,3 C 94 % 0 lf 1020,5 hPa 0,0 l/m 0 min 0 min 0 W/m 12,6 km/h (3 Bft) 97,87 %
01.01.2017 08:02 -2,9 C -2,2 C -3,3 C 94 % 0 lf 1020,4 hPa 0,0 l/m 0 min 0 min 0 W/m 14,6 km/h (3 Bft) 91,30 %
01.01.2017 08:04 -2,9 C -2,2 C -3,3 C 94 % 0 lf 1020,4 hPa 0,0 l/m 0 min 0 min 0 W/m 16,7 km/h (3 Bft) 97,87 %
01.01.2017 08:06 -2,9 C -2,2 C -3,3 C 94 % 0 lf 1020,4 hPa 0,0 l/m 0 min 0 min 0 W/m 14,6 km/h (3 Bft) 95,74 %
01.01.2017 08:08 -2,9 C -2,2 C -3,3 C 94 % 0 lf 1020,4 hPa 0,0 l/m 0 min 0 min 0 W/m 8,4 km/h (2 Bft) 95,74 %
01.01.2017 08:10 -2,9 C -2,2 C -3,3 C 94 % 0 lf 1020,3 hPa 0,0 l/m 0 min 0 min 0 W/m 10,5 km/h (2 Bft) 95,92 %
01.01.2017 08:12 -2,9 C -2,2 C -3,3 C 94 % 0 lf 1020,3 hPa 0,0 l/m 0 min 0 min 0 W/m 10,5 km/h (2 Bft) 95,74 %
01.01.2017 08:14 -2,9 C -2,2 C -3,3 C 94 % 0 lf 1020,3 hPa 0,0 l/m 0 min 0 min 0 W/m 14,6 km/h (3 Bft) 95,65 %
01.01.2017 08:16 -2,9 C -2,2 C -3,3 C 94 % 0 lf 1020,3 hPa 0,0 l/m 0 min 0 min 0 W/m 14,6 km/h (3 Bft) 93,62 %
01.01.2017 08:18 -2,9 C -2,2 C -3,3 C 94 % 0 lf 1020,2 hPa 0,0 l/m 0 min 0 min 0 W/m 12,6 km/h (3 Bft) 95,74 %
01.01.2017 08:20 -2,9 C -2,2 C -3,3 C 94 % 0 lf 1020,2 hPa 0,0 l/m 0 min 0 min 0 W/m 14,6 km/h (3 Bft) 95,74 %
01.01.2017 08:22 -2,9 C -2,2 C -3,3 C 94 % 0 lf 1020,1 hPa 0,0 l/m 0 min 0 min 4 W/m 16,7 km/h (3 Bft) 93,62 %
01.01.2017 08:24 -2,8 C -2,2 C -3,3 C 94 % 0 lf 1020,0 hPa 0,0 l/m 0 min 0 min 5 W/m 18,8 km/h (3 Bft) 91,30 %
01.01.2017 08:26 -2,9 C -2,2 C -3,3 C 94 % 0 lf 1020,0 hPa 0,0 l/m 0 min 0 min 5 W/m 12,6 km/h (3 Bft) 91,49 %
01.01.2017 08:28 -2,8 C -2,2 C -3,3 C 94 % 0 lf 1020,1 hPa 0,0 l/m 0 min 0 min 5 W/m 18,8 km/h (3 Bft) 93,62 %
01.01.2017 08:30 -2,9 C -2,2 C -3,3 C 94 % 0 lf 1020,1 hPa 0,0 l/m 0 min 0 min 5 W/m 18,8 km/h (3 Bft) 95,74 %
01.01.2017 08:32 -2,8 C -2,2 C -3,3 C 94 % 0 lf 1020,0 hPa 0,0 l/m 0 min 0 min 5 W/m 18,8 km/h (3 Bft) 93,62 %
01.01.2017 08:34 -2,8 C -2,2 C -3,3 C 94 % 0 lf 1020,0 hPa 0,0 l/m 0 min 0 min 5 W/m 18,8 km/h (3 Bft) 95,74 %
01.01.2017 08:36 -2,8 C -2,2 C -3,3 C 94 % 0 lf 1020,1 hPa 0,0 l/m 0 min 0 min 5 W/m 16,7 km/h (3 Bft) 92,86 %
01.01.2017 08:38 -2,8 C -2,2 C -3,3 C 94 % 0 lf 1020,0 hPa 0,0 l/m 0 min 0 min 6 W/m 14,6 km/h (3 Bft) 97,14 %
01.01.2017 08:40 -2,8 C -2,2 C -3,3 C 94 % 0 lf 1020,0 hPa 0,0 l/m 0 min 0 min 7 W/m 16,7 km/h (3 Bft) 94,92 %
01.01.2017 08:42 -2,8 C -2,2 C -3,3 C 94 % 0 lf 1020,0 hPa 0,0 l/m 0 min 0 min 7 W/m 16,7 km/h (3 Bft) 91,49 %
01.01.2017 08:44 -2,8 C -2,2 C -3,3 C 94 % 0 lf 1020,0 hPa 0,0 l/m 0 min 0 min 7 W/m 16,7 km/h (3 Bft) 97,14 %
01.01.2017 08:46 -2,8 C -2,2 C -3,3 C 94 % 0 lf 1019,9 hPa 0,0 l/m 0 min 0 min 7 W/m 16,7 km/h (3 Bft) 97,87 %
01.01.2017 08:48 -2,8 C -2,2 C -3,3 C 94 % 0 lf 1019,9 hPa 0,0 l/m 0 min 0 min 7 W/m 14,6 km/h (3 Bft) 95,65 %
01.01.2017 08:50 -2,8 C -2,2 C -3,3 C 94 % 0 lf 1019,9 hPa 0,0 l/m 0 min 0 min 9 W/m 12,6 km/h (3 Bft) 96,61 %
01.01.2017 08:52 -2,8 C -2,2 C -3,3 C 94 % 0 lf 1019,8 hPa 0,0 l/m 0 min 0 min 9 W/m 14,6 km/h (3 Bft) 97,14 %
01.01.2017 08:54 -2,8 C -2,2 C -3,3 C 94 % 0 lf 1019,7 hPa 0,0 l/m 0 min 0 min 9 W/m 23,0 km/h (4 Bft) 98,31 %
01.01.2017 08:56 -2,8 C -2,2 C -3,3 C 94 % 0 lf 1019,7 hPa 0,0 l/m 0 min 0 min 10 W/m 18,8 km/h (3 Bft) 100,00 %
01.01.2017 08:58 -2,8 C -2,2 C -3,3 C 94 % 0 lf 1019,7 hPa 0,0 l/m 0 min 0 min 11 W/m 20,9 km/h (4 Bft) 93,62 %
01.01.2017 09:00 -2,8 C -2,2 C -3,3 C 94 % 0 lf 1019,7 hPa 0,0 l/m 0 min 0 min 11 W/m 16,7 km/h (3 Bft) 97,14 %
01.01.2017 09:02 -2,8 C -2,2 C -3,3 C 94 % 0 lf 1019,7 hPa 0,0 l/m 0 min 0 min 12 W/m 18,8 km/h (3 Bft) 98,31 %
01.01.2017 09:04 -2,8 C -2,2 C -3,3 C 94 % 0 lf 1019,7 hPa 0,0 l/m 0 min 0 min 12 W/m 12,6 km/h (3 Bft) 100,00 %
01.01.2017 09:06 -2,8 C -2,2 C -3,3 C 93 % 0 lf 1019,7 hPa 0,0 l/m 0 min 0 min 12 W/m 16,7 km/h (3 Bft) 97,37 %
01.01.2017 09:08 -2,8 C -2,2 C -3,3 C 93 % 0 lf 1019,7 hPa 0,0 l/m 0 min 0 min 12 W/m 16,7 km/h (3 Bft) 95,74 %
01.01.2017 09:10 -2,8 C -2,2 C -3,3 C 93 % 0 lf 1019,7 hPa 0,0 l/m 0 min 0 min 12 W/m 18,8 km/h (3 Bft) 97,83 %
01.01.2017 09:12 -2,8 C -2,2 C -3,3 C 93 % 0 lf 1019,6 hPa 0,0 l/m 0 min 0 min 13 W/m 16,7 km/h (3 Bft) 93,62 %
01.01.2017 09:14 -2,8 C -2,2 C -3,3 C 93 % 0 lf 1019,6 hPa 0,0 l/m 0 min 0 min 14 W/m 16,7 km/h (3 Bft) 100,00 %
01.01.2017 09:16 -2,8 C -2,2 C -3,3 C 93 % 0 lf 1019,6 hPa 0,0 l/m 0 min 0 min 16 W/m 16,7 km/h (3 Bft) 97,87 %
01.01.2017 09:18 -2,8 C -2,2 C -3,3 C 93 % 0 lf 1019,6 hPa 0,0 l/m 0 min 0 min 18 W/m 16,7 km/h (3 Bft) 100,00 %
01.01.2017 09:20 -2,8 C -2,2 C -3,3 C 93 % 0 lf 1019,5 hPa 0,0 l/m 0 min 0 min 18 W/m 16,7 km/h (3 Bft) 100,00 %
01.01.2017 09:22 -2,7 C -2,2 C -3,3 C 93 % 0 lf 1019,5 hPa 0,0 l/m 0 min 0 min 18 W/m 20,9 km/h (4 Bft) 95,65 %
01.01.2017 09:24 -2,7 C -2,2 C -2,8 C 93 % 0 lf 1019,5 hPa 0,0 l/m 0 min 0 min 19 W/m 14,6 km/h (3 Bft) 95,74 %
01.01.2017 09:26 -2,7 C -2,2 C -2,8 C 93 % 0 lf 1019,5 hPa 0,0 l/m 0 min 0 min 19 W/m 18,8 km/h (3 Bft) 100,00 %
01.01.2017 09:28 -2,7 C -2,2 C -2,8 C 93 % 0 lf 1019,6 hPa 0,0 l/m 0 min 0 min 19 W/m 18,8 km/h (3 Bft) 100,00 %
01.01.2017 09:30 -2,7 C -2,2 C -2,8 C 93 % 0 lf 1019,6 hPa 0,0 l/m 0 min 0 min 21 W/m 18,8 km/h (3 Bft) 97,87 %
01.01.2017 09:32 -2,7 C -2,2 C -2,8 C 93 % 0 lf 1019,6 hPa 0,0 l/m 0 min 0 min 23 W/m 14,6 km/h (3 Bft) 100,00 %
01.01.2017 09:34 -2,7 C -2,2 C -2,8 C 93 % 0 lf 1019,5 hPa 0,0 l/m 0 min 0 min 23 W/m 14,6 km/h (3 Bft) 100,00 %
01.01.2017 09:36 -2,7 C -2,2 C -2,8 C 93 % 0 lf 1019,6 hPa 0,0 l/m 0 min 0 min 24 W/m 16,7 km/h (3 Bft) 97,87 %
01.01.2017 09:38 -2,6 C -2,2 C -2,8 C 93 % 0 lf 1019,5 hPa 0,0 l/m 0 min 0 min 25 W/m 12,6 km/h (3 Bft) 100,00 %
01.01.2017 09:40 -2,6 C -1,7 C -2,8 C 93 % 0 lf 1019,5 hPa 0,0 l/m 0 min 0 min 26 W/m 16,7 km/h (3 Bft) 100,00 %
01.01.2017 09:42 -2,6 C -1,7 C -2,8 C 93 % 0 lf 1019,5 hPa 0,0 l/m 0 min 0 min 26 W/m 20,9 km/h (4 Bft) 100,00 %
01.01.2017 09:44 -2,6 C -2,2 C -2,8 C 93 % 0 lf 1019,4 hPa 0,0 l/m 0 min 0 min 26 W/m 16,7 km/h (3 Bft) 97,87 %
01.01.2017 09:46 -2,6 C -1,7 C -2,8 C 93 % 0 lf 1019,4 hPa 0,0 l/m 0 min 0 min 29 W/m 20,9 km/h (4 Bft) 100,00 %
01.01.2017 09:48 -2,6 C -1,7 C -2,8 C 93 % 0 lf 1019,3 hPa 0,0 l/m 0 min 0 min 31 W/m 18,8 km/h (3 Bft) 95,74 %
01.01.2017 09:50 -2,6 C -1,7 C -2,8 C 93 % 0 lf 1019,4 hPa 0,0 l/m 0 min 0 min 32 W/m 18,8 km/h (3 Bft) 91,49 %
01.01.2017 09:52 -2,6 C -1,7 C -2,8 C 93 % 0 lf 1019,4 hPa 0,0 l/m 0 min 0 min 33 W/m 16,7 km/h (3 Bft) 95,74 %
01.01.2017 09:54 -2,5 C -1,7 C -2,8 C 93 % 0 lf 1019,4 hPa 0,0 l/m 0 min 0 min 36 W/m 20,9 km/h (4 Bft) 95,74 %
01.01.2017 09:56 -2,5 C -1,7 C -2,8 C 93 % 0 lf 1019,3 hPa 0,0 l/m 0 min 0 min 40 W/m 18,8 km/h (3 Bft) 95,65 %
01.01.2017 09:58 -2,5 C -1,7 C -2,8 C 93 % 0 lf 1019,3 hPa 0,0 l/m 0 min 0 min 42 W/m 16,7 km/h (3 Bft) 91,49 %
01.01.2017 10:00 -2,4 C -1,7 C -2,8 C 93 % 0 lf 1019,3 hPa 0,0 l/m 0 min 0 min 46 W/m 16,7 km/h (3 Bft) 93,62 %
01.01.2017 10:02 -2,4 C -1,7 C -2,2 C 93 % 0 lf 1019,3 hPa 0,0 l/m 0 min 0 min 49 W/m 16,7 km/h (3 Bft) 93,62 %
01.01.2017 10:04 -2,4 C -1,7 C -2,2 C 93 % 0 lf 1019,3 hPa 0,0 l/m 0 min 0 min 55 W/m 12,6 km/h (3 Bft) 93,62 %
01.01.2017 10:06 -2,4 C -1,7 C -2,2 C 92 % 0 lf 1019,2 hPa 0,0 l/m 0 min 0 min 76 W/m 16,7 km/h (3 Bft) 91,49 %
01.01.2017 10:08 -2,4 C -1,1 C -2,2 C 92 % 0 lf 1019,1 hPa 0,0 l/m 2 min 0 min 121 W/m 20,9 km/h (4 Bft) 93,48 %
01.01.2017 10:10 -2,3 C -1,1 C -2,2 C 92 % 0 lf 1019,1 hPa 0,0 l/m 2 min 0 min 132 W/m 16,7 km/h (3 Bft) 91,49 %
01.01.2017 10:12 -2,3 C -1,1 C -2,2 C 92 % 0 lf 1019,1 hPa 0,0 l/m 2 min 0 min 113 W/m 20,9 km/h (4 Bft) 93,62 %
01.01.2017 10:14 -2,3 C -1,7 C -2,8 C 93 % 0 lf 1019,1 hPa 0,0 l/m 2 min 0 min 105 W/m 18,8 km/h (3 Bft) 89,36 %
01.01.2017 10:16 -2,3 C -1,7 C -2,8 C 93 % 0 lf 1019,1 hPa 0,0 l/m 2 min 0 min 108 W/m 18,8 km/h (3 Bft) 89,36 %
01.01.2017 10:18 -2,3 C -1,7 C -2,8 C 92 % 0 lf 1019,0 hPa 0,0 l/m 2 min 0 min 111 W/m 14,6 km/h (3 Bft) 87,23 %
01.01.2017 10:20 -2,2 C -1,7 C -2,8 C 92 % 0 lf 1019,0 hPa 0,0 l/m 2 min 0 min 114 W/m 14,6 km/h (3 Bft) 93,48 %
01.01.2017 10:22 -2,2 C -1,7 C -2,8 C 92 % 0 lf 1019,0 hPa 0,0 l/m 2 min 0 min 115 W/m 23,0 km/h (4 Bft) 95,74 %
01.01.2017 10:24 -2,2 C -1,7 C -2,8 C 92 % 0 lf 1019,0 hPa 0,0 l/m 2 min 0 min 120 W/m 16,7 km/h (3 Bft) 93,62 %
01.01.2017 10:26 -2,2 C -1,7 C -2,8 C 92 % 0 lf 1018,9 hPa 0,0 l/m 2 min 0 min 122 W/m 23,0 km/h (4 Bft) 91,49 %
01.01.2017 10:28 -2,2 C -1,7 C -2,8 C 92 % 0 lf 1019,0 hPa 0,0 l/m 2 min 0 min 126 W/m 18,8 km/h (3 Bft) 93,62 %
01.01.2017 10:30 -2,2 C -1,7 C -2,8 C 92 % 0 lf 1018,9 hPa 0,0 l/m 2 min 0 min 129 W/m 23,0 km/h (4 Bft) 89,36 %
01.01.2017 10:32 -2,2 C -1,7 C -2,8 C 92 % 0 lf 1019,0 hPa 0,0 l/m 2 min 0 min 131 W/m 23,0 km/h (4 Bft) 93,48 %
01.01.2017 10:34 -2,2 C -1,7 C -2,8 C 92 % 0 lf 1018,9 hPa 0,0 l/m 2 min 0 min 135 W/m 18,8 km/h (3 Bft) 91,49 %
01.01.2017 10:36 -2,1 C -1,7 C -2,8 C 92 % 0 lf 1018,9 hPa 0,0 l/m 2 min 0 min 137 W/m 20,9 km/h (4 Bft) 94,44 %
01.01.2017 10:38 -2,1 C -1,1 C -2,8 C 92 % 0 lf 1018,8 hPa 0,0 l/m 2 min 0 min 139 W/m 20,9 km/h (4 Bft) 91,49 %
01.01.2017 10:40 -2,1 C -1,1 C -2,8 C 92 % 0 lf 1018,8 hPa 0,0 l/m 2 min 0 min 142 W/m 18,8 km/h (3 Bft) 95,74 %
01.01.2017 10:42 -2,1 C -1,1 C -2,8 C 92 % 0 lf 1018,8 hPa 0,0 l/m 2 min 0 min 145 W/m 20,9 km/h (4 Bft) 93,48 %
01.01.2017 10:44 -2,1 C -1,1 C -2,8 C 92 % 0 lf 1018,8 hPa 0,0 l/m 2 min 0 min 149 W/m 23,0 km/h (4 Bft) 95,74 %
01.01.2017 10:46 -2,1 C -1,1 C -2,8 C 92 % 0 lf 1018,7 hPa 0,0 l/m 2 min 0 min 151 W/m 23,0 km/h (4 Bft) 93,62 %
01.01.2017 10:48 -2,1 C -1,1 C -2,8 C 91 % 0 lf 1018,7 hPa 0,0 l/m 2 min 0 min 154 W/m 16,7 km/h (3 Bft) 87,23 %
01.01.2017 10:50 -2,0 C -1,1 C -2,8 C 91 % 0 lf 1018,7 hPa 0,0 l/m 2 min 0 min 156 W/m 29,3 km/h (5 Bft) 95,74 %
01.01.2017 10:52 -2,0 C -1,1 C -2,8 C 91 % 0 lf 1018,7 hPa 0,0 l/m 2 min 0 min 158 W/m 20,9 km/h (4 Bft) 93,62 %
01.01.2017 10:54 -1,9 C -0,6 C -2,8 C 91 % 0 lf 1018,6 hPa 0,0 l/m 2 min 0 min 161 W/m 25,1 km/h (4 Bft) 93,48 %
01.01.2017 10:56 -1,9 C -0,6 C -2,8 C 91 % 0 lf 1018,6 hPa 0,0 l/m 2 min 0 min 163 W/m 23,0 km/h (4 Bft) 97,87 %
01.01.2017 10:58 -1,9 C -0,6 C -2,8 C 91 % 0 lf 1018,6 hPa 0,0 l/m 2 min 0 min 168 W/m 16,7 km/h (3 Bft) 89,36 %
01.01.2017 11:00 -1,9 C -0,6 C -2,8 C 91 % 0 lf 1018,6 hPa 0,0 l/m 2 min 0 min 170 W/m 27,2 km/h (4 Bft) 95,74 %
01.01.2017 11:02 -1,8 C -0,6 C -2,8 C 91 % 0 lf 1018,5 hPa 0,0 l/m 2 min 0 min 172 W/m 20,9 km/h (4 Bft) 95,74 %
01.01.2017 11:04 -1,8 C -0,6 C -2,8 C 91 % 0 lf 1018,6 hPa 0,0 l/m 2 min 0 min 175 W/m 18,8 km/h (3 Bft) 97,83 %
01.01.2017 11:06 -1,8 C -0,6 C -2,8 C 91 % 0 lf 1018,6 hPa 0,0 l/m 2 min 0 min 178 W/m 27,2 km/h (4 Bft) 95,74 %
01.01.2017 11:08 -1,8 C 0,0 C -2,8 C 91 % 0 lf 1018,6 hPa 0,0 l/m 2 min 0 min 181 W/m 16,7 km/h (3 Bft) 97,87 %
01.01.2017 11:10 -1,8 C 0,0 C -2,2 C 91 % 0 lf 1018,6 hPa 0,0 l/m 2 min 0 min 183 W/m 23,0 km/h (4 Bft) 95,74 %
01.01.2017 11:12 -1,7 C 0,0 C -2,2 C 91 % 0 lf 1018,5 hPa 0,0 l/m 2 min 0 min 185 W/m 20,9 km/h (4 Bft) 93,62 %
01.01.2017 11:14 -1,7 C 0,0 C -2,2 C 91 % 0 lf 1018,4 hPa 0,0 l/m 2 min 0 min 186 W/m 20,9 km/h (4 Bft) 97,87 %
01.01.2017 11:16 -1,7 C 0,0 C -2,2 C 90 % 0 lf 1018,4 hPa 0,0 l/m 2 min 0 min 191 W/m 16,7 km/h (3 Bft) 95,65 %
01.01.2017 11:18 -1,7 C 0,6 C -2,2 C 90 % 0 lf 1018,5 hPa 0,0 l/m 2 min 0 min 195 W/m 23,0 km/h (4 Bft) 97,87 %
01.01.2017 11:20 -1,6 C 1,7 C -2,2 C 90 % 0 lf 1018,4 hPa 0,0 l/m 2 min 0 min 202 W/m 14,6 km/h (3 Bft) 97,87 %
01.01.2017 11:22 -1,6 C 2,2 C -2,2 C 90 % 0 lf 1018,4 hPa 0,0 l/m 2 min 0 min 208 W/m 31,4 km/h (5 Bft) 93,62 %
01.01.2017 11:24 -1,5 C 2,2 C -2,2 C 90 % 0 lf 1018,4 hPa 0,0 l/m 2 min 0 min 204 W/m 25,1 km/h (4 Bft) 95,74 %
01.01.2017 11:26 -1,5 C 2,2 C -2,2 C 90 % 0 lf 1018,4 hPa 0,0 l/m 2 min 0 min 202 W/m 23,0 km/h (4 Bft) 95,74 %
01.01.2017 11:28 -1,4 C 2,8 C -2,2 C 90 % 0 lf 1018,4 hPa 0,0 l/m 2 min 0 min 204 W/m 16,7 km/h (3 Bft) 95,65 %
01.01.2017 11:30 -1,3 C 2,8 C -2,2 C 90 % 0 lf 1018,5 hPa 0,0 l/m 2 min 0 min 206 W/m 18,8 km/h (3 Bft) 97,87 %
01.01.2017 11:32 -1,3 C 3,3 C -2,2 C 90 % 0 lf 1018,4 hPa 0,0 l/m 2 min 0 min 206 W/m 18,8 km/h (3 Bft) 89,58 %
01.01.2017 11:34 -1,2 C 3,9 C -2,2 C 90 % 0 lf 1018,4 hPa 0,0 l/m 2 min 0 min 205 W/m 16,7 km/h (3 Bft) 97,87 %
01.01.2017 11:36 -1,2 C 6,1 C -2,2 C 89 % 0 lf 1018,4 hPa 0,0 l/m 2 min 0 min 209 W/m 12,6 km/h (3 Bft) 94,74 %
01.01.2017 11:38 -1,1 C 6,1 C -2,2 C 89 % 0 lf 1018,4 hPa 0,0 l/m 2 min 0 min 209 W/m 14,6 km/h (3 Bft) 97,87 %
01.01.2017 11:40 -1,1 C 5,6 C -1,7 C 89 % 0 lf 1018,4 hPa 0,0 l/m 2 min 0 min 210 W/m 14,6 km/h (3 Bft) 91,49 %
01.01.2017 11:42 -1,0 C 4,4 C -1,7 C 89 % 0 lf 1018,3 hPa 0,0 l/m 2 min 0 min 209 W/m 16,7 km/h (3 Bft) 97,83 %
01.01.2017 11:44 -0,9 C 3,9 C -1,7 C 89 % 0 lf 1018,3 hPa 0,0 l/m 2 min 0 min 213 W/m 16,7 km/h (3 Bft) 95,74 %
01.01.2017 11:46 -0,8 C 4,4 C -1,7 C 89 % 0 lf 1018,3 hPa 0,0 l/m 2 min 0 min 214 W/m 16,7 km/h (3 Bft) 97,87 %
01.01.2017 11:48 -0,8 C 3,9 C -1,7 C 88 % 0 lf 1018,3 hPa 0,0 l/m 2 min 0 min 216 W/m 14,6 km/h (3 Bft) 100,00 %
01.01.2017 11:50 -0,7 C 3,9 C -1,7 C 88 % 0 lf 1018,3 hPa 0,0 l/m 2 min 0 min 215 W/m 14,6 km/h (3 Bft) 95,74 %
01.01.2017 11:52 -0,6 C 5,0 C -1,7 C 88 % 0 lf 1018,3 hPa 0,0 l/m 2 min 0 min 216 W/m 14,6 km/h (3 Bft) 97,87 %
01.01.2017 11:54 -0,6 C 4,4 C -1,7 C 88 % 0 lf 1018,3 hPa 0,0 l/m 2 min 0 min 218 W/m 18,8 km/h (3 Bft) 97,83 %
01.01.2017 11:56 -0,5 C 4,4 C -1,7 C 88 % 0 lf 1018,2 hPa 0,0 l/m 2 min 0 min 221 W/m 12,6 km/h (3 Bft) 97,87 %
01.01.2017 11:58 -0,4 C 4,4 C -1,7 C 87 % 0 lf 1018,3 hPa 0,0 l/m 2 min 0 min 221 W/m 12,6 km/h (3 Bft) 97,87 %
01.01.2017 12:00 -0,4 C 4,4 C -1,7 C 87 % 0 lf 1018,3 hPa 0,0 l/m 2 min 0 min 224 W/m 14,6 km/h (3 Bft) 97,87 %
01.01.2017 12:02 -0,4 C 5,0 C -1,7 C 87 % 0 lf 1018,3 hPa 0,0 l/m 2 min 0 min 226 W/m 14,6 km/h (3 Bft) 100,00 %
01.01.2017 12:04 -0,3 C 5,6 C -1,7 C 87 % 0 lf 1018,3 hPa 0,0 l/m 2 min 0 min 226 W/m 14,6 km/h (3 Bft) 97,92 %
01.01.2017 12:06 -0,3 C 4,4 C -1,7 C 86 % 0 lf 1018,2 hPa 0,0 l/m 2 min 0 min 228 W/m 12,6 km/h (3 Bft) 91,30 %
01.01.2017 12:08 -0,3 C 3,3 C -1,7 C 86 % 0 lf 1018,2 hPa 0,0 l/m 2 min 0 min 227 W/m 14,6 km/h (3 Bft) 100,00 %
01.01.2017 12:10 -0,2 C 3,3 C -1,7 C 86 % 0 lf 1018,1 hPa 0,0 l/m 2 min 0 min 227 W/m 12,6 km/h (3 Bft) 97,87 %
01.01.2017 12:12 -0,2 C 3,9 C -1,7 C 86 % 0 lf 1018,0 hPa 0,0 l/m 2 min 0 min 226 W/m 10,5 km/h (2 Bft) 100,00 %
01.01.2017 12:14 -0,2 C 3,9 C -1,7 C 86 % 0 lf 1018,0 hPa 0,0 l/m 2 min 0 min 232 W/m 14,6 km/h (3 Bft) 92,31 %
01.01.2017 12:16 -0,2 C 3,3 C -1,7 C 85 % 0 lf 1018,0 hPa 0,0 l/m 2 min 0 min 230 W/m 10,5 km/h (2 Bft) 97,87 %
01.01.2017 12:18 -0,1 C 3,3 C -1,1 C 85 % 0 lf 1018,0 hPa 0,0 l/m 2 min 0 min 228 W/m 10,5 km/h (2 Bft) 95,74 %
01.01.2017 12:20 -0,1 C 2,8 C -1,1 C 85 % 0 lf 1017,9 hPa 0,0 l/m 2 min 0 min 226 W/m 12,6 km/h (3 Bft) 97,87 %
01.01.2017 12:22 -0,1 C 3,3 C -1,1 C 85 % 0 lf 1017,9 hPa 0,0 l/m 2 min 0 min 227 W/m 8,4 km/h (2 Bft) 92,68 %
01.01.2017 12:24 0,0 C 3,3 C -1,1 C 85 % 0 lf 1017,9 hPa 0,0 l/m 2 min 0 min 227 W/m 10,5 km/h (2 Bft) 95,74 %
01.01.2017 12:26 0,0 C 3,9 C -1,1 C 85 % 0 lf 1017,9 hPa 0,0 l/m 2 min 0 min 228 W/m 6,3 km/h (2 Bft) 97,87 %
01.01.2017 12:28 0,1 C 3,3 C -1,1 C 84 % 0 lf 1017,9 hPa 0,0 l/m 2 min 0 min 227 W/m 10,5 km/h (2 Bft) 91,49 %
01.01.2017 12:30 0,1 C 3,3 C -1,1 C 84 % 0 lf 1017,8 hPa 0,0 l/m 2 min 0 min 226 W/m 14,6 km/h (3 Bft) 95,65 %
01.01.2017 12:32 0,1 C 2,8 C -1,1 C 85 % 0 lf 1017,8 hPa 0,0 l/m 2 min 0 min 223 W/m 8,4 km/h (2 Bft) 92,45 %
01.01.2017 12:34 0,1 C 2,8 C -1,1 C 85 % 0 lf 1017,8 hPa 0,0 l/m 2 min 0 min 223 W/m 10,5 km/h (2 Bft) 95,74 %
01.01.2017 12:36 0,2 C 2,8 C -1,1 C 84 % 0 lf 1017,7 hPa 0,0 l/m 2 min 0 min 224 W/m 10,5 km/h (2 Bft) 93,62 %
01.01.2017 12:38 0,2 C 2,8 C -1,1 C 84 % 0 lf 1017,7 hPa 0,0 l/m 2 min 0 min 222 W/m 8,4 km/h (2 Bft) 93,48 %
01.01.2017 12:40 0,2 C 2,8 C -1,1 C 84 % 0 lf 1017,7 hPa 0,0 l/m 2 min 0 min 220 W/m 10,5 km/h (2 Bft) 91,49 %
01.01.2017 12:42 0,2 C 3,3 C -0,6 C 84 % 0 lf 1017,7 hPa 0,0 l/m 2 min 0 min 222 W/m 10,5 km/h (2 Bft) 93,62 %
01.01.2017 12:44 0,3 C 2,8 C -0,6 C 84 % 0 lf 1017,8 hPa 0,0 l/m 2 min 0 min 225 W/m 10,5 km/h (2 Bft) 91,49 %
01.01.2017 12:46 0,3 C 3,3 C -0,6 C 84 % 0 lf 1017,8 hPa 0,0 l/m 2 min 0 min 225 W/m 10,5 km/h (2 Bft) 95,74 %
01.01.2017 12:48 0,3 C 3,9 C -0,6 C 84 % 0 lf 1017,8 hPa 0,0 l/m 2 min 0 min 226 W/m 8,4 km/h (2 Bft) 91,49 %
01.01.2017 12:50 0,3 C 5,0 C -0,6 C 84 % 0 lf 1017,7 hPa 0,0 l/m 2 min 0 min 226 W/m 10,5 km/h (2 Bft) 93,48 %
01.01.2017 12:52 0,4 C 4,4 C -0,6 C 84 % 0 lf 1017,7 hPa 0,0 l/m 2 min 0 min 226 W/m 10,5 km/h (2 Bft) 92,68 %
01.01.2017 12:54 0,4 C 5,0 C -0,6 C 84 % 0 lf 1017,7 hPa 0,0 l/m 2 min 0 min 225 W/m 6,3 km/h (2 Bft) 93,62 %
01.01.2017 12:56 0,5 C 3,9 C -0,6 C 84 % 0 lf 1017,7 hPa 0,0 l/m 2 min 0 min 222 W/m 16,7 km/h (3 Bft) 92,45 %
01.01.2017 12:58 0,5 C 5,0 C -0,6 C 84 % 0 lf 1017,7 hPa 0,0 l/m 2 min 0 min 221 W/m 10,5 km/h (2 Bft) 91,49 %
01.01.2017 13:00 0,5 C 5,0 C 0,0 C 83 % 0 lf 1017,7 hPa 0,0 l/m 2 min 0 min 221 W/m 10,5 km/h (2 Bft) 93,62 %
01.01.2017 13:02 0,5 C 6,1 C 0,0 C 83 % 0 lf 1017,8 hPa 0,0 l/m 2 min 0 min 222 W/m 8,4 km/h (2 Bft) 95,65 %
01.01.2017 13:04 0,5 C 6,1 C 0,0 C 83 % 0 lf 1017,8 hPa 0,0 l/m 2 min 0 min 221 W/m 12,6 km/h (3 Bft) 97,56 %
01.01.2017 13:06 0,6 C 6,7 C 0,0 C 83 % 0 lf 1017,7 hPa 0,0 l/m 2 min 0 min 222 W/m 6,3 km/h (2 Bft) 98,11 %
01.01.2017 13:08 0,7 C 7,2 C 0,0 C 83 % 0 lf 1017,7 hPa 0,0 l/m 2 min 0 min 222 W/m 10,5 km/h (2 Bft) 97,56 %
01.01.2017 13:10 0,7 C 6,7 C 0,0 C 83 % 0 lf 1017,6 hPa 0,0 l/m 2 min 0 min 215 W/m 14,6 km/h (3 Bft) 93,62 %
01.01.2017 13:12 0,8 C 5,6 C 0,0 C 83 % 0 lf 1017,6 hPa 0,0 l/m 2 min 0 min 215 W/m 16,7 km/h (3 Bft) 95,74 %
01.01.2017 13:14 0,8 C 5,6 C 0,0 C 82 % 0 lf 1017,6 hPa 0,0 l/m 2 min 0 min 211 W/m 12,6 km/h (3 Bft) 95,74 %
01.01.2017 13:16 0,8 C 6,1 C 0,0 C 82 % 0 lf 1017,5 hPa 0,0 l/m 2 min 0 min 214 W/m 12,6 km/h (3 Bft) 98,08 %
01.01.2017 13:18 0,9 C 5,6 C 0,0 C 82 % 0 lf 1017,5 hPa 0,0 l/m 2 min 0 min 217 W/m 14,6 km/h (3 Bft) 95,74 %
01.01.2017 13:20 0,9 C 5,6 C 0,0 C 81 % 0 lf 1017,4 hPa 0,0 l/m 2 min 0 min 214 W/m 12,6 km/h (3 Bft) 97,87 %
01.01.2017 13:22 0,9 C 5,0 C 0,0 C 81 % 0 lf 1017,3 hPa 0,0 l/m 2 min 0 min 214 W/m 20,9 km/h (4 Bft) 97,87 %
01.01.2017 13:24 0,9 C 5,0 C 0,0 C 80 % 0 lf 1017,2 hPa 0,0 l/m 2 min 0 min 214 W/m 18,8 km/h (3 Bft) 97,87 %
01.01.2017 13:26 1,0 C 5,0 C 0,0 C 80 % 0 lf 1017,2 hPa 0,0 l/m 2 min 0 min 215 W/m 16,7 km/h (3 Bft) 97,83 %
01.01.2017 13:28 1,0 C 5,0 C 0,0 C 79 % 0 lf 1017,2 hPa 0,0 l/m 2 min 0 min 217 W/m 14,6 km/h (3 Bft) 95,74 %
01.01.2017 13:30 1,0 C 4,4 C 0,0 C 79 % 0 lf 1017,1 hPa 0,0 l/m 2 min 0 min 216 W/m 20,9 km/h (4 Bft) 95,12 %
01.01.2017 13:32 1,0 C 5,6 C 0,0 C 79 % 0 lf 1017,1 hPa 0,0 l/m 2 min 0 min 201 W/m 14,6 km/h (3 Bft) 98,11 %
01.01.2017 13:34 1,1 C 6,1 C 0,0 C 79 % 0 lf 1017,1 hPa 0,0 l/m 2 min 0 min 189 W/m 14,6 km/h (3 Bft) 95,74 %
01.01.2017 13:36 1,1 C 5,6 C 0,0 C 78 % 0 lf 1017,1 hPa 0,0 l/m 2 min 0 min 184 W/m 12,6 km/h (3 Bft) 97,83 %
01.01.2017 13:38 1,1 C 5,0 C 0,0 C 78 % 0 lf 1017,2 hPa 0,0 l/m 2 min 0 min 185 W/m 20,9 km/h (4 Bft) 97,87 %
01.01.2017 13:40 1,1 C 5,6 C 0,0 C 78 % 0 lf 1017,2 hPa 0,0 l/m 2 min 0 min 185 W/m 16,7 km/h (3 Bft) 95,74 %
01.01.2017 13:42 1,2 C 6,1 C 0,0 C 78 % 0 lf 1017,2 hPa 0,0 l/m 2 min 0 min 194 W/m 12,6 km/h (3 Bft) 97,87 %
01.01.2017 13:44 1,2 C 6,1 C 0,0 C 78 % 0 lf 1017,2 hPa 0,0 l/m 2 min 0 min 196 W/m 18,8 km/h (3 Bft) 95,74 %
01.01.2017 13:46 1,2 C 6,7 C 0,0 C 78 % 0 lf 1017,2 hPa 0,0 l/m 2 min 0 min 183 W/m 16,7 km/h (3 Bft) 97,87 %
01.01.2017 13:48 1,2 C 6,1 C 0,0 C 78 % 0 lf 1017,2 hPa 0,0 l/m 2 min 0 min 188 W/m 14,6 km/h (3 Bft) 97,83 %
01.01.2017 13:50 1,2 C 6,1 C 0,0 C 78 % 0 lf 1017,2 hPa 0,0 l/m 2 min 0 min 195 W/m 16,7 km/h (3 Bft) 95,74 %
01.01.2017 13:52 1,2 C 6,7 C 0,0 C 78 % 0 lf 1017,3 hPa 0,0 l/m 2 min 0 min 190 W/m 12,6 km/h (3 Bft) 97,87 %
01.01.2017 13:54 1,3 C 6,1 C 0,0 C 77 % 0 lf 1017,3 hPa 0,0 l/m 2 min 0 min 177 W/m 14,6 km/h (3 Bft) 95,74 %
01.01.2017 13:56 1,3 C 7,2 C 0,0 C 77 % 0 lf 1017,3 hPa 0,0 l/m 2 min 0 min 172 W/m 12,6 km/h (3 Bft) 93,62 %
01.01.2017 13:58 1,3 C 8,3 C 0,0 C 77 % 0 lf 1017,2 hPa 0,0 l/m 2 min 0 min 180 W/m 10,5 km/h (2 Bft) 95,74 %
01.01.2017 14:00 1,3 C 7,8 C 0,0 C 77 % 0 lf 1017,3 hPa 0,0 l/m 2 min 0 min 178 W/m 16,7 km/h (3 Bft) 100,00 %
01.01.2017 14:02 1,3 C 8,3 C 0,0 C 77 % 0 lf 1017,3 hPa 0,0 l/m 2 min 0 min 166 W/m 10,5 km/h (2 Bft) 100,00 %
01.01.2017 14:04 1,3 C 7,8 C 0,0 C 77 % 0 lf 1017,2 hPa 0,0 l/m 2 min 0 min 154 W/m 14,6 km/h (3 Bft) 97,87 %
01.01.2017 14:06 1,3 C 7,8 C 0,0 C 77 % 0 lf 1017,2 hPa 0,0 l/m 2 min 0 min 155 W/m 12,6 km/h (3 Bft) 100,00 %
01.01.2017 14:08 1,3 C 7,8 C 0,0 C 77 % 0 lf 1017,2 hPa 0,0 l/m 2 min 0 min 151 W/m 16,7 km/h (3 Bft) 100,00 %
01.01.2017 14:10 1,3 C 8,3 C 0,6 C 77 % 0 lf 1017,2 hPa 0,0 l/m 2 min 0 min 156 W/m 14,6 km/h (3 Bft) 100,00 %
01.01.2017 14:12 1,4 C 7,2 C 0,6 C 77 % 0 lf 1017,2 hPa 0,0 l/m 2 min 0 min 162 W/m 20,9 km/h (4 Bft) 97,83 %
01.01.2017 14:14 1,4 C 7,8 C 0,6 C 77 % 0 lf 1017,2 hPa 0,0 l/m 2 min 0 min 164 W/m 20,9 km/h (4 Bft) 100,00 %
01.01.2017 14:16 1,4 C 7,8 C 0,6 C 77 % 0 lf 1017,1 hPa 0,0 l/m 2 min 0 min 149 W/m 18,8 km/h (3 Bft) 97,87 %
01.01.2017 14:18 1,4 C 7,2 C 0,6 C 77 % 0 lf 1017,2 hPa 0,0 l/m 2 min 0 min 150 W/m 16,7 km/h (3 Bft) 97,87 %
01.01.2017 14:20 1,4 C 6,7 C 0,6 C 77 % 0 lf 1017,2 hPa 0,0 l/m 2 min 0 min 140 W/m 18,8 km/h (3 Bft) 100,00 %
01.01.2017 14:22 1,4 C 6,7 C 0,6 C 77 % 0 lf 1017,2 hPa 0,0 l/m 2 min 0 min 127 W/m 23,0 km/h (4 Bft) 100,00 %
01.01.2017 14:24 1,4 C 6,1 C 0,0 C 77 % 0 lf 1017,2 hPa 0,0 l/m 2 min 0 min 134 W/m 23,0 km/h (4 Bft) 97,83 %
01.01.2017 14:26 1,4 C 5,6 C 0,0 C 77 % 0 lf 1017,2 hPa 0,0 l/m 2 min 0 min 124 W/m 27,2 km/h (4 Bft) 93,62 %
01.01.2017 14:28 1,4 C 4,4 C 0,0 C 77 % 0 lf 1017,2 hPa 0,0 l/m 0 min 0 min 99 W/m 20,9 km/h (4 Bft) 95,74 %
01.01.2017 14:30 1,4 C 3,3 C 0,0 C 77 % 0 lf 1017,3 hPa 0,0 l/m 0 min 0 min 90 W/m 23,0 km/h (4 Bft) 95,12 %
01.01.2017 14:32 1,4 C 3,3 C 0,0 C 77 % 0 lf 1017,3 hPa 0,0 l/m 0 min 0 min 80 W/m 18,8 km/h (3 Bft) 90,57 %
01.01.2017 14:34 1,3 C 2,8 C 0,0 C 78 % 0 lf 1017,3 hPa 0,0 l/m 0 min 0 min 89 W/m 18,8 km/h (3 Bft) 95,74 %
01.01.2017 14:36 1,3 C 2,2 C 0,0 C 78 % 0 lf 1017,4 hPa 0,0 l/m 0 min 0 min 89 W/m 27,2 km/h (4 Bft) 95,92 %
01.01.2017 14:38 1,3 C 2,2 C 0,0 C 78 % 0 lf 1017,4 hPa 0,0 l/m 0 min 0 min 95 W/m 29,3 km/h (5 Bft) 94,29 %
01.01.2017 14:40 1,2 C 2,2 C 0,0 C 78 % 0 lf 1017,3 hPa 0,0 l/m 2 min 0 min 103 W/m 25,1 km/h (4 Bft) 91,53 %
01.01.2017 14:42 1,2 C 2,2 C 0,0 C 79 % 0 lf 1017,3 hPa 0,0 l/m 0 min 0 min 94 W/m 29,3 km/h (5 Bft) 95,74 %
01.01.2017 14:44 1,2 C 1,7 C -0,6 C 79 % 0 lf 1017,3 hPa 0,0 l/m 0 min 0 min 86 W/m 25,1 km/h (4 Bft) 93,62 %
01.01.2017 14:46 1,1 C 1,7 C -0,6 C 80 % 0 lf 1017,3 hPa 0,0 l/m 0 min 0 min 81 W/m 27,2 km/h (4 Bft) 85,71 %
01.01.2017 14:48 1,1 C 1,7 C -0,6 C 80 % 0 lf 1017,4 hPa 0,0 l/m 0 min 0 min 72 W/m 23,0 km/h (4 Bft) 94,83 %
01.01.2017 14:50 1,0 C 1,7 C -0,6 C 80 % 0 lf 1017,5 hPa 0,0 l/m 0 min 0 min 73 W/m 18,8 km/h (3 Bft) 89,36 %
01.01.2017 14:52 0,9 C 1,7 C -0,6 C 80 % 0 lf 1017,6 hPa 0,0 l/m 0 min 0 min 64 W/m 18,8 km/h (3 Bft) 97,14 %
01.01.2017 14:54 0,9 C 1,7 C -0,6 C 81 % 0 lf 1017,7 hPa 0,0 l/m 0 min 0 min 59 W/m 14,6 km/h (3 Bft) 89,36 %
01.01.2017 14:56 0,9 C 1,1 C -0,6 C 81 % 0 lf 1017,7 hPa 0,0 l/m 0 min 0 min 65 W/m 27,2 km/h (4 Bft) 95,74 %
01.01.2017 14:58 0,9 C 1,1 C -0,6 C 81 % 0 lf 1017,8 hPa 0,0 l/m 0 min 0 min 71 W/m 14,6 km/h (3 Bft) 93,62 %
01.01.2017 15:00 0,8 C 1,1 C 0,0 C 81 % 0 lf 1017,8 hPa 0,0 l/m 0 min 0 min 79 W/m 14,6 km/h (3 Bft) 98,28 %
01.01.2017 15:02 0,8 C 1,7 C 0,0 C 82 % 0 lf 1017,8 hPa 0,0 l/m 0 min 0 min 71 W/m 23,0 km/h (4 Bft) 95,74 %
01.01.2017 15:04 0,8 C 1,7 C 0,0 C 82 % 0 lf 1017,8 hPa 0,0 l/m 0 min 0 min 64 W/m 23,0 km/h (4 Bft) 97,14 %
01.01.2017 15:06 0,8 C 1,1 C 0,0 C 82 % 0 lf 1017,8 hPa 0,0 l/m 0 min 0 min 53 W/m 25,1 km/h (4 Bft) 94,92 %
01.01.2017 15:08 0,8 C 1,1 C 0,0 C 82 % 0 lf 1017,8 hPa 0,0 l/m 0 min 0 min 44 W/m 16,7 km/h (3 Bft) 97,87 %
01.01.2017 15:10 0,7 C 1,1 C 0,0 C 82 % 0 lf 1017,8 hPa 0,0 l/m 0 min 0 min 41 W/m 14,6 km/h (3 Bft) 100,00 %
01.01.2017 15:12 0,7 C 1,1 C 0,0 C 83 % 0 lf 1017,8 hPa 0,0 l/m 0 min 0 min 40 W/m 16,7 km/h (3 Bft) 95,65 %
01.01.2017 15:14 0,7 C 1,1 C 0,0 C 83 % 0 lf 1017,7 hPa 0,0 l/m 0 min 0 min 39 W/m 16,7 km/h (3 Bft) 95,74 %
01.01.2017 15:16 0,7 C 1,1 C 0,0 C 83 % 0 lf 1017,7 hPa 0,0 l/m 0 min 0 min 34 W/m 18,8 km/h (3 Bft) 100,00 %
01.01.2017 15:18 0,7 C 1,1 C 0,0 C 83 % 0 lf 1017,7 hPa 0,0 l/m 0 min 0 min 37 W/m 12,6 km/h (3 Bft) 95,74 %
01.01.2017 15:20 0,7 C 1,1 C -0,6 C 83 % 0 lf 1017,7 hPa 0,0 l/m 0 min 0 min 34 W/m 16,7 km/h (3 Bft) 96,55 %
01.01.2017 15:22 0,7 C 1,1 C -0,6 C 84 % 0 lf 1017,7 hPa 0,0 l/m 0 min 0 min 32 W/m 10,5 km/h (2 Bft) 100,00 %
01.01.2017 15:24 0,7 C 1,1 C -0,6 C 84 % 0 lf 1017,7 hPa 0,0 l/m 0 min 0 min 31 W/m 25,1 km/h (4 Bft) 97,14 %
01.01.2017 15:26 0,7 C 1,1 C -0,6 C 84 % 0 lf 1017,7 hPa 0,0 l/m 0 min 0 min 29 W/m 16,7 km/h (3 Bft) 93,62 %
01.01.2017 15:28 0,6 C 1,1 C -0,6 C 84 % 0 lf 1017,7 hPa 0,0 l/m 0 min 0 min 29 W/m 12,6 km/h (3 Bft) 98,31 %
01.01.2017 15:30 0,6 C 1,1 C -0,6 C 84 % 0 lf 1017,7 hPa 0,0 l/m 0 min 0 min 27 W/m 16,7 km/h (3 Bft) 100,00 %
01.01.2017 15:32 0,6 C 1,1 C -0,6 C 85 % 0 lf 1017,7 hPa 0,0 l/m 0 min 0 min 27 W/m 18,8 km/h (3 Bft) 96,55 %
01.01.2017 15:34 0,6 C 1,1 C -0,6 C 85 % 0 lf 1017,6 hPa 0,0 l/m 0 min 0 min 32 W/m 18,8 km/h (3 Bft) 100,00 %
01.01.2017 15:36 0,6 C 1,1 C -0,6 C 85 % 0 lf 1017,7 hPa 0,0 l/m 0 min 0 min 35 W/m 14,6 km/h (3 Bft) 95,65 %
01.01.2017 15:38 0,6 C 1,1 C -0,6 C 85 % 0 lf 1017,6 hPa 0,0 l/m 0 min 0 min 37 W/m 14,6 km/h (3 Bft) 98,31 %
01.01.2017 15:40 0,6 C 1,1 C -0,6 C 86 % 0 lf 1017,6 hPa 0,0 l/m 0 min 0 min 29 W/m 10,5 km/h (2 Bft) 100,00 %
01.01.2017 15:42 0,6 C 1,1 C -0,6 C 86 % 0 lf 1017,6 hPa 0,0 l/m 0 min 0 min 22 W/m 18,8 km/h (3 Bft) 100,00 %
01.01.2017 15:44 0,6 C 1,1 C -0,6 C 86 % 0 lf 1017,6 hPa 0,0 l/m 0 min 0 min 18 W/m 16,7 km/h (3 Bft) 97,83 %
01.01.2017 15:46 0,5 C 0,6 C -0,6 C 86 % 0 lf 1017,6 hPa 0,0 l/m 0 min 0 min 16 W/m 12,6 km/h (3 Bft) 93,62 %
01.01.2017 15:48 0,5 C 0,6 C -0,6 C 86 % 0 lf 1017,6 hPa 0,0 l/m 0 min 0 min 16 W/m 14,6 km/h (3 Bft) 95,74 %
01.01.2017 15:50 0,5 C 0,6 C -0,6 C 86 % 0 lf 1017,6 hPa 0,0 l/m 0 min 0 min 17 W/m 14,6 km/h (3 Bft) 97,87 %
01.01.2017 15:52 0,5 C 0,6 C -0,6 C 86 % 0 lf 1017,6 hPa 0,0 l/m 0 min 0 min 18 W/m 14,6 km/h (3 Bft) 93,62 %
01.01.2017 15:54 0,5 C 0,6 C -0,6 C 87 % 0 lf 1017,6 hPa 0,0 l/m 0 min 0 min 18 W/m 18,8 km/h (3 Bft) 95,74 %
01.01.2017 15:56 0,5 C 0,6 C -0,6 C 87 % 0 lf 1017,5 hPa 0,0 l/m 0 min 0 min 18 W/m 20,9 km/h (4 Bft) 97,83 %
01.01.2017 15:58 0,5 C 0,6 C -0,6 C 87 % 0 lf 1017,6 hPa 0,0 l/m 0 min 0 min 18 W/m 23,0 km/h (4 Bft) 97,87 %
01.01.2017 16:00 0,5 C 0,6 C -0,6 C 87 % 0 lf 1017,4 hPa 0,0 l/m 0 min 0 min 18 W/m 14,6 km/h (3 Bft) 95,74 %
01.01.2017 16:02 0,5 C 0,6 C -0,6 C 87 % 0 lf 1017,5 hPa 0,0 l/m 0 min 0 min 18 W/m 23,0 km/h (4 Bft) 95,74 %
01.01.2017 16:04 0,5 C 0,6 C -0,6 C 88 % 0 lf 1017,5 hPa 0,0 l/m 0 min 0 min 17 W/m 14,6 km/h (3 Bft) 89,36 %
01.01.2017 16:06 0,5 C 0,6 C -0,6 C 88 % 0 lf 1017,4 hPa 0,0 l/m 0 min 0 min 14 W/m 18,8 km/h (3 Bft) 93,62 %
01.01.2017 16:08 0,5 C 0,6 C -0,6 C 88 % 0 lf 1017,4 hPa 0,0 l/m 0 min 0 min 12 W/m 14,6 km/h (3 Bft) 93,48 %
01.01.2017 16:10 0,5 C 0,6 C -0,6 C 88 % 0 lf 1017,3 hPa 0,0 l/m 0 min 0 min 12 W/m 12,6 km/h (3 Bft) 95,74 %
01.01.2017 16:12 0,4 C 0,6 C -0,6 C 88 % 0 lf 1017,3 hPa 0,0 l/m 0 min 0 min 12 W/m 8,4 km/h (2 Bft) 95,74 %
01.01.2017 16:14 0,4 C 0,6 C -0,6 C 88 % 0 lf 1017,3 hPa 0,0 l/m 0 min 0 min 11 W/m 12,6 km/h (3 Bft) 95,74 %
01.01.2017 16:16 0,5 C 0,6 C -0,6 C 88 % 0 lf 1017,3 hPa 0,0 l/m 0 min 0 min 11 W/m 10,5 km/h (2 Bft) 91,49 %
01.01.2017 16:18 0,4 C 0,6 C -0,6 C 88 % 0 lf 1017,2 hPa 0,0 l/m 0 min 0 min 12 W/m 12,6 km/h (3 Bft) 95,65 %
01.01.2017 16:20 0,4 C 0,6 C -0,6 C 88 % 0 lf 1017,2 hPa 0,0 l/m 0 min 0 min 11 W/m 12,6 km/h (3 Bft) 95,74 %
01.01.2017 16:22 0,4 C 0,6 C -0,6 C 88 % 0 lf 1017,1 hPa 0,0 l/m 0 min 0 min 11 W/m 12,6 km/h (3 Bft) 95,74 %
01.01.2017 16:24 0,4 C 0,6 C -0,6 C 88 % 0 lf 1017,2 hPa 0,0 l/m 0 min 0 min 11 W/m 18,8 km/h (3 Bft) 91,49 %
01.01.2017 16:26 0,4 C 0,6 C -0,6 C 89 % 0 lf 1017,1 hPa 0,0 l/m 0 min 0 min 10 W/m 23,0 km/h (4 Bft) 95,74 %
01.01.2017 16:28 0,4 C 0,6 C -0,6 C 89 % 0 lf 1017,1 hPa 0,0 l/m 0 min 0 min 9 W/m 18,8 km/h (3 Bft) 93,62 %
01.01.2017 16:30 0,4 C 0,6 C -0,6 C 89 % 0 lf 1017,1 hPa 0,0 l/m 0 min 0 min 10 W/m 18,8 km/h (3 Bft) 97,83 %
01.01.2017 16:32 0,4 C 0,6 C -0,6 C 89 % 0 lf 1017,1 hPa 0,0 l/m 0 min 0 min 8 W/m 14,6 km/h (3 Bft) 95,74 %
01.01.2017 16:34 0,4 C 0,6 C -0,6 C 89 % 0 lf 1017,1 hPa 0,0 l/m 0 min 0 min 7 W/m 27,2 km/h (4 Bft) 95,74 %
01.01.2017 16:36 0,4 C 0,6 C -0,6 C 89 % 0 lf 1017,1 hPa 0,0 l/m 0 min 0 min 7 W/m 23,0 km/h (4 Bft) 97,87 %
01.01.2017 16:38 0,4 C 0,6 C -0,6 C 89 % 0 lf 1017,1 hPa 0,0 l/m 0 min 0 min 5 W/m 14,6 km/h (3 Bft) 95,74 %
01.01.2017 16:40 0,4 C 0,6 C -0,6 C 89 % 0 lf 1017,1 hPa 0,0 l/m 0 min 0 min 5 W/m 29,3 km/h (5 Bft) 93,62 %
01.01.2017 16:42 0,4 C 0,6 C -0,6 C 89 % 0 lf 1017,1 hPa 0,0 l/m 0 min 0 min 5 W/m 20,9 km/h (4 Bft) 97,83 %
01.01.2017 16:44 0,4 C 0,6 C -0,6 C 89 % 0 lf 1017,1 hPa 0,0 l/m 0 min 0 min 5 W/m 25,1 km/h (4 Bft) 95,74 %
01.01.2017 16:46 0,3 C 0,6 C -0,6 C 90 % 0 lf 1017,1 hPa 0,0 l/m 0 min 0 min 5 W/m 23,0 km/h (4 Bft) 97,87 %
01.01.2017 16:48 0,3 C 0,6 C -1,1 C 90 % 0 lf 1017,1 hPa 0,0 l/m 0 min 0 min 5 W/m 18,8 km/h (3 Bft) 95,74 %
01.01.2017 16:50 0,3 C 0,6 C -1,1 C 90 % 0 lf 1017,0 hPa 0,0 l/m 0 min 0 min 5 W/m 12,6 km/h (3 Bft) 95,74 %
01.01.2017 16:52 0,3 C 0,6 C -1,1 C 90 % 0 lf 1017,0 hPa 0,0 l/m 0 min 0 min 5 W/m 14,6 km/h (3 Bft) 100,00 %
01.01.2017 16:54 0,3 C 0,6 C -0,6 C 90 % 0 lf 1017,0 hPa 0,0 l/m 0 min 0 min 2 W/m 14,6 km/h (3 Bft) 100,00 %
01.01.2017 16:56 0,3 C 0,6 C -0,6 C 90 % 0 lf 1017,0 hPa 0,0 l/m 0 min 0 min 0 W/m 20,9 km/h (4 Bft) 100,00 %
01.01.2017 16:58 0,3 C 0,6 C -0,6 C 90 % 0 lf 1017,0 hPa 0,0 l/m 0 min 0 min 0 W/m 18,8 km/h (3 Bft) 97,87 %
01.01.2017 17:00 0,3 C 0,6 C -0,6 C 90 % 0 lf 1017,1 hPa 0,0 l/m 0 min 0 min 0 W/m 14,6 km/h (3 Bft) 97,87 %
01.01.2017 17:02 0,3 C 0,6 C -0,6 C 91 % 0 lf 1017,1 hPa 0,0 l/m 0 min 0 min 0 W/m 16,7 km/h (3 Bft) 97,87 %
01.01.2017 17:04 0,3 C 0,6 C -0,6 C 91 % 0 lf 1017,1 hPa 0,0 l/m 0 min 0 min 0 W/m 23,0 km/h (4 Bft) 95,74 %
01.01.2017 17:06 0,3 C 0,6 C -0,6 C 91 % 0 lf 1017,1 hPa 0,0 l/m 0 min 0 min 0 W/m 18,8 km/h (3 Bft) 93,48 %
01.01.2017 17:08 0,3 C 0,6 C -0,6 C 91 % 0 lf 1017,1 hPa 0,0 l/m 0 min 0 min 0 W/m 18,8 km/h (3 Bft) 95,74 %
01.01.2017 17:10 0,3 C 0,6 C -0,6 C 91 % 0 lf 1017,2 hPa 0,0 l/m 0 min 0 min 0 W/m 16,7 km/h (3 Bft) 97,87 %
01.01.2017 17:12 0,3 C 0,6 C -0,6 C 91 % 0 lf 1017,2 hPa 0,0 l/m 0 min 0 min 0 W/m 20,9 km/h (4 Bft) 97,87 %
01.01.2017 17:14 0,3 C 0,6 C -0,6 C 91 % 0 lf 1017,2 hPa 0,0 l/m 0 min 0 min 0 W/m 16,7 km/h (3 Bft) 95,74 %
01.01.2017 17:16 0,3 C 0,6 C -0,6 C 91 % 0 lf 1017,2 hPa 0,0 l/m 0 min 0 min 0 W/m 20,9 km/h (4 Bft) 91,30 %
01.01.2017 17:18 0,3 C 0,6 C -0,6 C 91 % 0 lf 1017,1 hPa 0,0 l/m 0 min 0 min 0 W/m 18,8 km/h (3 Bft) 95,74 %
01.01.2017 17:20 0,3 C 0,6 C -0,6 C 91 % 0 lf 1017,2 hPa 0,0 l/m 0 min 0 min 0 W/m 18,8 km/h (3 Bft) 97,87 %
01.01.2017 17:22 0,3 C 0,6 C -0,6 C 91 % 0 lf 1017,2 hPa 0,0 l/m 0 min 0 min 0 W/m 20,9 km/h (4 Bft) 91,67 %
01.01.2017 17:24 0,3 C 0,6 C -0,6 C 91 % 0 lf 1017,3 hPa 0,0 l/m 0 min 0 min 0 W/m 10,5 km/h (2 Bft) 97,87 %
01.01.2017 17:26 0,3 C 0,6 C -0,6 C 91 % 0 lf 1017,2 hPa 0,0 l/m 0 min 0 min 0 W/m 18,8 km/h (3 Bft) 97,87 %
01.01.2017 17:28 0,3 C 0,6 C -0,6 C 91 % 0 lf 1017,2 hPa 0,0 l/m 0 min 0 min 0 W/m 14,6 km/h (3 Bft) 97,87 %
01.01.2017 17:30 0,3 C 0,6 C -0,6 C 91 % 0 lf 1017,2 hPa 0,0 l/m 0 min 0 min 0 W/m 12,6 km/h (3 Bft) 89,36 %
01.01.2017 17:32 0,3 C 0,6 C -0,6 C 91 % 0 lf 1017,1 hPa 0,0 l/m 0 min 0 min 0 W/m 14,6 km/h (3 Bft) 93,62 %
01.01.2017 17:34 0,3 C 0,6 C -0,6 C 91 % 0 lf 1017,2 hPa 0,0 l/m 0 min 0 min 0 W/m 10,5 km/h (2 Bft) 95,83 %
01.01.2017 17:36 0,3 C 0,6 C -0,6 C 91 % 0 lf 1017,2 hPa 0,0 l/m 0 min 0 min 0 W/m 6,3 km/h (2 Bft) 97,87 %
01.01.2017 17:38 0,3 C 0,6 C -0,6 C 91 % 0 lf 1017,2 hPa 0,0 l/m 0 min 0 min 0 W/m 16,7 km/h (3 Bft) 95,74 %
01.01.2017 17:40 0,4 C 0,6 C -0,6 C 91 % 0 lf 1017,2 hPa 0,0 l/m 0 min 0 min 0 W/m 10,5 km/h (2 Bft) 97,87 %
01.01.2017 17:42 0,4 C 1,1 C -0,6 C 91 % 0 lf 1017,2 hPa 0,0 l/m 0 min 0 min 0 W/m 14,6 km/h (3 Bft) 93,62 %
01.01.2017 17:44 0,4 C 1,1 C -0,6 C 91 % 0 lf 1017,2 hPa 0,0 l/m 0 min 0 min 0 W/m 14,6 km/h (3 Bft) 91,30 %
01.01.2017 17:46 0,4 C 1,1 C -0,6 C 91 % 0 lf 1017,2 hPa 0,0 l/m 0 min 0 min 0 W/m 12,6 km/h (3 Bft) 91,49 %
01.01.2017 17:48 0,4 C 1,1 C -0,6 C 91 % 0 lf 1017,2 hPa 0,0 l/m 0 min 0 min 0 W/m 23,0 km/h (4 Bft) 95,74 %
01.01.2017 17:50 0,4 C 1,1 C -0,6 C 91 % 0 lf 1017,2 hPa 0,0 l/m 0 min 0 min 0 W/m 10,5 km/h (2 Bft) 97,87 %
01.01.2017 17:52 0,4 C 1,1 C -0,6 C 91 % 0 lf 1017,2 hPa 0,0 l/m 0 min 0 min 0 W/m 14,6 km/h (3 Bft) 93,62 %
01.01.2017 17:54 0,5 C 1,1 C -0,6 C 91 % 0 lf 1017,3 hPa 0,0 l/m 0 min 0 min 0 W/m 18,8 km/h (3 Bft) 93,48 %
01.01.2017 17:56 0,5 C 1,1 C -0,6 C 91 % 0 lf 1017,3 hPa 0,0 l/m 0 min 0 min 0 W/m 14,6 km/h (3 Bft) 97,87 %
01.01.2017 17:58 0,5 C 1,1 C -0,6 C 91 % 0 lf 1017,2 hPa 0,0 l/m 0 min 0 min 0 W/m 12,6 km/h (3 Bft) 95,74 %
01.01.2017 18:00 0,5 C 1,1 C -0,6 C 91 % 0 lf 1017,1 hPa 0,0 l/m 0 min 0 min 0 W/m 12,6 km/h (3 Bft) 97,87 %
01.01.2017 18:02 0,5 C 1,1 C -0,6 C 91 % 0 lf 1017,2 hPa 0,0 l/m 0 min 0 min 0 W/m 14,6 km/h (3 Bft) 91,49 %
01.01.2017 18:04 0,5 C 1,1 C -0,6 C 91 % 0 lf 1017,2 hPa 0,0 l/m 0 min 0 min 0 W/m 10,5 km/h (2 Bft) 93,62 %
01.01.2017 18:06 0,5 C 1,1 C -0,6 C 91 % 0 lf 1017,2 hPa 0,0 l/m 0 min 0 min 0 W/m 23,0 km/h (4 Bft) 93,48 %
01.01.2017 18:08 0,5 C 1,1 C -0,6 C 91 % 0 lf 1017,2 hPa 0,0 l/m 0 min 0 min 0 W/m 18,8 km/h (3 Bft) 95,74 %
01.01.2017 18:10 0,5 C 1,1 C -0,6 C 91 % 0 lf 1017,2 hPa 0,0 l/m 0 min 0 min 0 W/m 23,0 km/h (4 Bft) 91,49 %
01.01.2017 18:12 0,5 C 1,1 C -0,6 C 91 % 0 lf 1017,2 hPa 0,0 l/m 0 min 0 min 0 W/m 12,6 km/h (3 Bft) 97,87 %
01.01.2017 18:14 0,5 C 1,1 C -0,6 C 91 % 0 lf 1017,1 hPa 0,0 l/m 0 min 0 min 0 W/m 14,6 km/h (3 Bft) 93,62 %
01.01.2017 18:16 0,5 C 1,1 C -0,6 C 91 % 0 lf 1017,1 hPa 0,0 l/m 0 min 0 min 0 W/m 16,7 km/h (3 Bft) 95,74 %
01.01.2017 18:18 0,5 C 1,1 C -0,6 C 91 % 0 lf 1017,0 hPa 0,0 l/m 0 min 0 min 0 W/m 14,6 km/h (3 Bft) 95,65 %
01.01.2017 18:20 0,5 C 1,1 C -0,6 C 91 % 0 lf 1017,2 hPa 0,0 l/m 0 min 0 min 0 W/m 18,8 km/h (3 Bft) 95,74 %
01.01.2017 18:22 0,5 C 1,1 C -0,6 C 91 % 0 lf 1017,2 hPa 0,0 l/m 0 min 0 min 0 W/m 16,7 km/h (3 Bft) 95,74 %
01.01.2017 18:24 0,5 C 1,1 C -0,6 C 91 % 0 lf 1017,2 hPa 0,0 l/m 0 min 0 min 0 W/m 10,5 km/h (2 Bft) 97,87 %
01.01.2017 18:26 0,5 C 1,1 C -0,6 C 91 % 0 lf 1017,1 hPa 0,0 l/m 0 min 0 min 0 W/m 12,6 km/h (3 Bft) 91,49 %
01.01.2017 18:28 0,6 C 1,1 C -0,6 C 91 % 0 lf 1017,1 hPa 0,0 l/m 0 min 0 min 0 W/m 12,6 km/h (3 Bft) 95,74 %
01.01.2017 18:30 0,6 C 1,1 C -0,6 C 91 % 0 lf 1017,0 hPa 0,0 l/m 0 min 0 min 0 W/m 12,6 km/h (3 Bft) 97,83 %
01.01.2017 18:32 0,6 C 1,1 C -0,6 C 91 % 0 lf 1017,1 hPa 0,0 l/m 0 min 0 min 0 W/m 12,6 km/h (3 Bft) 95,74 %
01.01.2017 18:34 0,6 C 1,1 C -0,6 C 91 % 0 lf 1017,1 hPa 0,0 l/m 0 min 0 min 0 W/m 18,8 km/h (3 Bft) 95,74 %
01.01.2017 18:36 0,6 C 1,1 C -0,6 C 91 % 0 lf 1017,2 hPa 0,0 l/m 0 min 0 min 0 W/m 14,6 km/h (3 Bft) 97,87 %
01.01.2017 18:38 0,6 C 1,1 C -0,6 C 90 % 0 lf 1017,2 hPa 0,0 l/m 0 min 0 min 0 W/m 18,8 km/h (3 Bft) 97,87 %
01.01.2017 18:40 0,7 C 1,1 C -0,6 C 90 % 0 lf 1017,2 hPa 0,0 l/m 0 min 0 min 0 W/m 16,7 km/h (3 Bft) 93,62 %
01.01.2017 18:42 0,7 C 1,1 C -0,6 C 90 % 0 lf 1017,2 hPa 0,0 l/m 0 min 0 min 0 W/m 20,9 km/h (4 Bft) 92,45 %
01.01.2017 18:44 0,7 C 1,1 C -0,6 C 90 % 0 lf 1017,3 hPa 0,0 l/m 0 min 0 min 0 W/m 14,6 km/h (3 Bft) 93,62 %
01.01.2017 18:46 0,7 C 1,1 C -0,6 C 90 % 0 lf 1017,4 hPa 0,0 l/m 0 min 0 min 0 W/m 10,5 km/h (2 Bft) 95,74 %
01.01.2017 18:48 0,7 C 1,1 C -0,6 C 90 % 0 lf 1017,4 hPa 0,0 l/m 0 min 0 min 0 W/m 14,6 km/h (3 Bft) 95,74 %
01.01.2017 18:50 0,7 C 1,1 C -0,6 C 90 % 0 lf 1017,5 hPa 0,0 l/m 0 min 0 min 0 W/m 14,6 km/h (3 Bft) 91,49 %
01.01.2017 18:52 0,7 C 1,1 C -0,6 C 90 % 0 lf 1017,5 hPa 0,0 l/m 0 min 0 min 0 W/m 14,6 km/h (3 Bft) 93,48 %
01.01.2017 18:54 0,7 C 1,1 C -0,6 C 90 % 0 lf 1017,4 hPa 0,0 l/m 0 min 0 min 0 W/m 8,4 km/h (2 Bft) 95,74 %
01.01.2017 18:56 0,7 C 1,1 C -0,6 C 90 % 0 lf 1017,3 hPa 0,0 l/m 0 min 0 min 0 W/m 10,5 km/h (2 Bft) 95,74 %
01.01.2017 18:58 0,7 C 1,1 C -0,6 C 90 % 0 lf 1017,4 hPa 0,0 l/m 0 min 0 min 0 W/m 14,6 km/h (3 Bft) 87,23 %
01.01.2017 19:00 0,7 C 1,1 C -0,6 C 90 % 0 lf 1017,4 hPa 0,0 l/m 0 min 0 min 0 W/m 14,6 km/h (3 Bft) 91,49 %
01.01.2017 19:02 0,7 C 1,1 C -0,6 C 90 % 0 lf 1017,4 hPa 0,0 l/m 0 min 0 min 0 W/m 14,6 km/h (3 Bft) 95,74 %
01.01.2017 19:04 0,7 C 1,1 C -0,6 C 90 % 0 lf 1017,4 hPa 0,0 l/m 0 min 0 min 0 W/m 10,5 km/h (2 Bft) 93,62 %
01.01.2017 19:06 0,7 C 1,1 C 0,0 C 90 % 0 lf 1017,4 hPa 0,0 l/m 0 min 0 min 0 W/m 12,6 km/h (3 Bft) 93,62 %
01.01.2017 19:08 0,7 C 1,1 C 0,0 C 90 % 0 lf 1017,4 hPa 0,0 l/m 0 min 0 min 0 W/m 16,7 km/h (3 Bft) 93,62 %
01.01.2017 19:10 0,7 C 1,1 C 0,0 C 90 % 0 lf 1017,4 hPa 0,0 l/m 0 min 0 min 0 W/m 12,6 km/h (3 Bft) 93,62 %
01.01.2017 19:12 0,8 C 1,1 C 0,0 C 90 % 0 lf 1017,4 hPa 0,0 l/m 0 min 0 min 0 W/m 14,6 km/h (3 Bft) 93,62 %
01.01.2017 19:14 0,8 C 1,1 C 0,0 C 90 % 0 lf 1017,3 hPa 0,0 l/m 0 min 0 min 0 W/m 12,6 km/h (3 Bft) 95,65 %
01.01.2017 19:16 0,8 C 1,1 C 0,0 C 90 % 0 lf 1017,3 hPa 0,0 l/m 0 min 0 min 0 W/m 12,6 km/h (3 Bft) 93,62 %
01.01.2017 19:18 0,8 C 1,1 C 0,0 C 90 % 0 lf 1017,2 hPa 0,0 l/m 0 min 0 min 0 W/m 10,5 km/h (2 Bft) 97,87 %
01.01.2017 19:20 0,8 C 1,1 C -0,6 C 90 % 0 lf 1017,3 hPa 0,0 l/m 0 min 0 min 0 W/m 10,5 km/h (2 Bft) 95,74 %
01.01.2017 19:22 0,8 C 1,1 C -0,6 C 90 % 0 lf 1017,3 hPa 0,0 l/m 0 min 0 min 0 W/m 16,7 km/h (3 Bft) 95,74 %
01.01.2017 19:24 0,8 C 1,1 C -0,6 C 90 % 0 lf 1017,3 hPa 0,0 l/m 0 min 0 min 0 W/m 18,8 km/h (3 Bft) 93,62 %
01.01.2017 19:26 0,8 C 1,1 C -0,6 C 90 % 0 lf 1017,3 hPa 0,0 l/m 0 min 0 min 0 W/m 10,5 km/h (2 Bft) 100,00 %
01.01.2017 19:28 0,8 C 1,1 C -0,6 C 90 % 0 lf 1017,2 hPa 0,0 l/m 0 min 0 min 0 W/m 14,6 km/h (3 Bft) 95,74 %
01.01.2017 19:30 0,8 C 1,1 C -0,6 C 90 % 0 lf 1017,2 hPa 0,0 l/m 0 min 0 min 0 W/m 16,7 km/h (3 Bft) 93,62 %
01.01.2017 19:32 0,8 C 1,1 C -0,6 C 90 % 0 lf 1017,2 hPa 0,0 l/m 0 min 0 min 0 W/m 10,5 km/h (2 Bft) 97,92 %
01.01.2017 19:34 0,8 C 1,1 C -0,6 C 90 % 0 lf 1017,2 hPa 0,0 l/m 0 min 0 min 0 W/m 12,6 km/h (3 Bft) 95,74 %
01.01.2017 19:36 0,8 C 1,1 C -0,6 C 90 % 0 lf 1017,3 hPa 0,0 l/m 0 min 0 min 0 W/m 8,4 km/h (2 Bft) 100,00 %
01.01.2017 19:38 0,8 C 1,1 C -0,6 C 90 % 0 lf 1017,4 hPa 0,0 l/m 0 min 0 min 0 W/m 8,4 km/h (2 Bft) 91,49 %
01.01.2017 19:40 0,8 C 0,6 C -0,6 C 90 % 0 lf 1017,4 hPa 0,0 l/m 0 min 0 min 0 W/m 8,4 km/h (2 Bft) 93,62 %
01.01.2017 19:42 0,8 C 1,1 C -0,6 C 90 % 0 lf 1017,4 hPa 0,0 l/m 0 min 0 min 0 W/m 14,6 km/h (3 Bft) 95,74 %
01.01.2017 19:44 0,8 C 1,1 C -0,6 C 90 % 0 lf 1017,4 hPa 0,0 l/m 0 min 0 min 0 W/m 14,6 km/h (3 Bft) 95,74 %
01.01.2017 19:46 0,8 C 1,1 C -0,6 C 90 % 0 lf 1017,4 hPa 0,0 l/m 0 min 0 min 0 W/m 10,5 km/h (2 Bft) 91,49 %
01.01.2017 19:48 0,8 C 1,1 C -0,6 C 90 % 0 lf 1017,4 hPa 0,0 l/m 0 min 0 min 0 W/m 12,6 km/h (3 Bft) 95,65 %
01.01.2017 19:50 0,8 C 1,1 C -0,6 C 90 % 0 lf 1017,3 hPa 0,0 l/m 0 min 0 min 0 W/m 14,6 km/h (3 Bft) 97,87 %
01.01.2017 19:52 0,8 C 1,1 C -0,6 C 90 % 0 lf 1017,3 hPa 0,0 l/m 0 min 0 min 0 W/m 14,6 km/h (3 Bft) 93,62 %
01.01.2017 19:54 0,8 C 1,1 C -0,6 C 90 % 0 lf 1017,2 hPa 0,0 l/m 0 min 0 min 0 W/m 8,4 km/h (2 Bft) 97,87 %
01.01.2017 19:56 0,8 C 1,1 C -0,6 C 90 % 0 lf 1017,2 hPa 0,0 l/m 0 min 0 min 0 W/m 14,6 km/h (3 Bft) 95,74 %
01.01.2017 19:58 0,8 C 1,1 C -0,6 C 90 % 0 lf 1017,2 hPa 0,0 l/m 0 min 0 min 0 W/m 20,9 km/h (4 Bft) 95,74 %
01.01.2017 20:00 0,8 C 1,1 C -0,6 C 90 % 0 lf 1017,2 hPa 0,0 l/m 0 min 0 min 0 W/m 16,7 km/h (3 Bft) 97,83 %
01.01.2017 20:02 0,8 C 1,1 C -0,6 C 91 % 0 lf 1017,2 hPa 0,0 l/m 0 min 0 min 0 W/m 14,6 km/h (3 Bft) 91,49 %
01.01.2017 20:04 0,8 C 1,1 C -0,6 C 91 % 0 lf 1017,1 hPa 0,0 l/m 0 min 0 min 0 W/m 16,7 km/h (3 Bft) 95,74 %
01.01.2017 20:06 0,8 C 1,1 C -0,6 C 91 % 0 lf 1017,1 hPa 0,0 l/m 0 min 0 min 0 W/m 12,6 km/h (3 Bft) 94,74 %
01.01.2017 20:08 0,8 C 1,1 C -0,6 C 91 % 0 lf 1017,2 hPa 0,0 l/m 0 min 0 min 0 W/m 12,6 km/h (3 Bft) 91,49 %
01.01.2017 20:10 0,8 C 1,1 C -0,6 C 91 % 0 lf 1017,2 hPa 0,0 l/m 0 min 0 min 0 W/m 10,5 km/h (2 Bft) 97,87 %
01.01.2017 20:12 0,8 C 1,1 C -0,6 C 91 % 0 lf 1017,2 hPa 0,0 l/m 0 min 0 min 0 W/m 23,0 km/h (4 Bft) 95,74 %
01.01.2017 20:14 0,8 C 1,1 C -0,6 C 91 % 0 lf 1017,2 hPa 0,0 l/m 0 min 0 min 0 W/m 8,4 km/h (2 Bft) 97,83 %
01.01.2017 20:16 0,8 C 1,1 C 0,0 C 91 % 0 lf 1017,2 hPa 0,0 l/m 0 min 0 min 0 W/m 14,6 km/h (3 Bft) 97,87 %
01.01.2017 20:18 0,8 C 1,1 C 0,0 C 91 % 0 lf 1017,2 hPa 0,0 l/m 0 min 0 min 0 W/m 20,9 km/h (4 Bft) 97,87 %
01.01.2017 20:20 0,8 C 1,1 C 0,0 C 91 % 0 lf 1017,2 hPa 0,0 l/m 0 min 0 min 0 W/m 12,6 km/h (3 Bft) 93,62 %
01.01.2017 20:22 0,8 C 1,1 C 0,0 C 91 % 0 lf 1017,2 hPa 0,0 l/m 0 min 0 min 0 W/m 14,6 km/h (3 Bft) 95,74 %
01.01.2017 20:24 0,8 C 1,1 C 0,0 C 91 % 0 lf 1017,2 hPa 0,0 l/m 0 min 0 min 0 W/m 14,6 km/h (3 Bft) 95,74 %
01.01.2017 20:26 0,8 C 1,1 C 0,0 C 91 % 0 lf 1017,2 hPa 0,0 l/m 0 min 0 min 0 W/m 14,6 km/h (3 Bft) 95,65 %
01.01.2017 20:28 0,8 C 1,1 C 0,0 C 91 % 0 lf 1017,1 hPa 0,0 l/m 0 min 0 min 0 W/m 14,6 km/h (3 Bft) 95,74 %
01.01.2017 20:30 0,8 C 1,1 C 0,0 C 91 % 0 lf 1017,2 hPa 0,0 l/m 0 min 0 min 0 W/m 14,6 km/h (3 Bft) 97,87 %
01.01.2017 20:32 0,8 C 1,7 C 0,0 C 91 % 0 lf 1017,2 hPa 0,0 l/m 0 min 0 min 0 W/m 14,6 km/h (3 Bft) 97,87 %
01.01.2017 20:34 0,9 C 1,7 C 0,0 C 90 % 0 lf 1017,2 hPa 0,0 l/m 0 min 0 min 0 W/m 16,7 km/h (3 Bft) 97,87 %
01.01.2017 20:36 0,9 C 1,7 C 0,0 C 90 % 0 lf 1017,2 hPa 0,0 l/m 0 min 0 min 0 W/m 16,7 km/h (3 Bft) 95,74 %
01.01.2017 20:38 0,9 C 1,7 C 0,0 C 90 % 0 lf 1017,2 hPa 0,0 l/m 0 min 0 min 0 W/m 20,9 km/h (4 Bft) 95,65 %
01.01.2017 20:40 0,9 C 1,7 C 0,0 C 90 % 0 lf 1017,2 hPa 0,0 l/m 0 min 0 min 0 W/m 18,8 km/h (3 Bft) 93,62 %
01.01.2017 20:42 0,9 C 1,7 C 0,0 C 90 % 0 lf 1017,2 hPa 0,0 l/m 0 min 0 min 0 W/m 16,7 km/h (3 Bft) 97,87 %
01.01.2017 20:44 0,9 C 1,7 C 0,0 C 90 % 0 lf 1017,2 hPa 0,0 l/m 0 min 0 min 0 W/m 14,6 km/h (3 Bft) 91,49 %
01.01.2017 20:46 0,9 C 1,7 C 0,0 C 90 % 0 lf 1017,2 hPa 0,0 l/m 0 min 0 min 0 W/m 12,6 km/h (3 Bft) 97,87 %
01.01.2017 20:48 0,9 C 1,7 C 0,0 C 90 % 0 lf 1017,3 hPa 0,0 l/m 0 min 0 min 0 W/m 10,5 km/h (2 Bft) 97,87 %
01.01.2017 20:50 0,9 C 1,7 C 0,0 C 90 % 0 lf 1017,3 hPa 0,0 l/m 0 min 0 min 0 W/m 8,4 km/h (2 Bft) 95,65 %
01.01.2017 20:52 0,9 C 1,7 C 0,0 C 90 % 0 lf 1017,3 hPa 0,0 l/m 0 min 0 min 0 W/m 10,5 km/h (2 Bft) 95,74 %
01.01.2017 20:54 0,9 C 1,7 C 0,0 C 89 % 0 lf 1017,2 hPa 0,0 l/m 0 min 0 min 0 W/m 12,6 km/h (3 Bft) 97,87 %
01.01.2017 20:56 0,9 C 1,7 C 0,0 C 89 % 0 lf 1017,2 hPa 0,0 l/m 0 min 0 min 0 W/m 12,6 km/h (3 Bft) 97,87 %
01.01.2017 20:58 0,9 C 1,7 C 0,0 C 89 % 0 lf 1017,2 hPa 0,0 l/m 0 min 0 min 0 W/m 16,7 km/h (3 Bft) 95,74 %
01.01.2017 21:00 0,9 C 1,7 C 0,0 C 89 % 0 lf 1017,2 hPa 0,0 l/m 0 min 0 min 0 W/m 10,5 km/h (2 Bft) 95,74 %
01.01.2017 21:02 0,9 C 1,7 C 0,0 C 89 % 0 lf 1017,2 hPa 0,0 l/m 0 min 0 min 0 W/m 8,4 km/h (2 Bft) 100,00 %
01.01.2017 21:04 0,9 C 1,1 C 0,0 C 89 % 0 lf 1017,3 hPa 0,0 l/m 0 min 2 min 0 W/m 14,6 km/h (3 Bft) 100,00 %
01.01.2017 21:06 0,9 C 1,1 C 0,0 C 89 % 1 lf 1017,4 hPa 0,0 l/m 0 min 2 min 0 W/m 14,6 km/h (3 Bft) 97,87 %
01.01.2017 21:08 0,9 C 1,1 C -0,6 C 89 % 2 lf 1017,4 hPa 0,0 l/m 0 min 2 min 0 W/m 10,5 km/h (2 Bft) 94,34 %
01.01.2017 21:10 0,9 C 1,1 C -0,6 C 89 % 1 lf 1017,4 hPa 0,0 l/m 0 min 2 min 0 W/m 14,6 km/h (3 Bft) 100,00 %
01.01.2017 21:12 1,0 C 1,1 C -0,6 C 89 % 3 lf 1017,4 hPa 0,0 l/m 0 min 2 min 0 W/m 10,5 km/h (2 Bft) 97,83 %
01.01.2017 21:14 1,0 C 1,1 C -0,6 C 89 % 4 lf 1017,5 hPa 0,0 l/m 0 min 2 min 0 W/m 8,4 km/h (2 Bft) 100,00 %
01.01.2017 21:16 1,0 C 1,1 C -0,6 C 89 % 3 lf 1017,6 hPa 0,0 l/m 0 min 2 min 0 W/m 12,6 km/h (3 Bft) 97,87 %
01.01.2017 21:18 1,0 C 1,1 C -0,6 C 89 % 3 lf 1017,6 hPa 0,0 l/m 0 min 2 min 0 W/m 12,6 km/h (3 Bft) 90,24 %
01.01.2017 21:20 1,0 C 1,1 C -0,6 C 89 % 2 lf 1017,6 hPa 0,0 l/m 0 min 0 min 0 W/m 8,4 km/h (2 Bft) 97,87 %
01.01.2017 21:22 1,0 C 1,1 C -0,6 C 89 % 1 lf 1017,6 hPa 0,0 l/m 0 min 0 min 0 W/m 14,6 km/h (3 Bft) 96,15 %
01.01.2017 21:24 1,0 C 1,1 C -0,6 C 89 % 0 lf 1017,6 hPa 0,0 l/m 0 min 0 min 0 W/m 8,4 km/h (2 Bft) 93,62 %
01.01.2017 21:26 1,0 C 1,1 C -0,6 C 89 % 1 lf 1017,6 hPa 0,0 l/m 0 min 2 min 0 W/m 10,5 km/h (2 Bft) 95,12 %
01.01.2017 21:28 1,0 C 1,1 C -0,6 C 89 % 0 lf 1017,6 hPa 0,0 l/m 0 min 2 min 0 W/m 14,6 km/h (3 Bft) 95,74 %
01.01.2017 21:30 1,0 C 1,1 C -0,6 C 89 % 0 lf 1017,6 hPa 0,0 l/m 0 min 2 min 0 W/m 12,6 km/h (3 Bft) 96,23 %
01.01.2017 21:32 1,0 C 1,1 C -0,6 C 89 % 1 lf 1017,6 hPa 0,0 l/m 0 min 2 min 0 W/m 8,4 km/h (2 Bft) 93,75 %
01.01.2017 21:34 1,0 C 0,6 C -0,6 C 89 % 3 lf 1017,6 hPa 0,0 l/m 0 min 2 min 0 W/m 8,4 km/h (2 Bft) 93,48 %
01.01.2017 21:36 1,0 C 0,6 C -0,6 C 89 % 4 lf 1017,6 hPa 0,0 l/m 0 min 2 min 0 W/m 10,5 km/h (2 Bft) 95,74 %
01.01.2017 21:38 1,0 C 0,6 C -0,6 C 89 % 6 lf 1017,6 hPa 0,0 l/m 0 min 2 min 0 W/m 8,4 km/h (2 Bft) 95,74 %
01.01.2017 21:40 1,0 C 0,6 C -0,6 C 89 % 6 lf 1017,6 hPa 0,0 l/m 0 min 0 min 0 W/m 10,5 km/h (2 Bft) 95,74 %
01.01.2017 21:42 1,0 C 0,6 C -0,6 C 89 % 6 lf 1017,6 hPa 0,0 l/m 0 min 0 min 0 W/m 8,4 km/h (2 Bft) 93,62 %
01.01.2017 21:44 1,0 C 0,6 C -0,6 C 89 % 6 lf 1017,6 hPa 0,0 l/m 0 min 0 min 0 W/m 8,4 km/h (2 Bft) 93,62 %
01.01.2017 21:46 1,0 C 0,6 C -0,6 C 89 % 8 lf 1017,6 hPa 0,0 l/m 0 min 2 min 0 W/m 6,3 km/h (2 Bft) 97,83 %
01.01.2017 21:48 1,0 C 0,6 C -0,6 C 90 % 12 lf 1017,6 hPa 0,0 l/m 0 min 2 min 0 W/m 8,4 km/h (2 Bft) 91,49 %
01.01.2017 21:50 1,0 C 0,6 C -0,6 C 90 % 13 lf 1017,6 hPa 0,0 l/m 0 min 0 min 0 W/m 8,4 km/h (2 Bft) 93,62 %
01.01.2017 21:52 0,9 C 0,6 C -0,6 C 90 % 13 lf 1017,6 hPa 0,0 l/m 0 min 0 min 0 W/m 8,4 km/h (2 Bft) 93,62 %
01.01.2017 21:54 0,9 C 0,6 C -0,6 C 90 % 14 lf 1017,6 hPa 0,0 l/m 0 min 0 min 0 W/m 8,4 km/h (2 Bft) 93,62 %
01.01.2017 21:56 0,9 C 0,6 C -0,6 C 90 % 14 lf 1017,6 hPa 0,0 l/m 0 min 0 min 0 W/m 6,3 km/h (2 Bft) 95,74 %
01.01.2017 21:58 0,9 C 0,6 C -0,6 C 90 % 15 lf 1017,7 hPa 0,0 l/m 0 min 0 min 0 W/m 6,3 km/h (2 Bft) 95,65 %
01.01.2017 22:00 0,9 C 0,6 C -0,6 C 90 % 15 lf 1017,7 hPa 0,0 l/m 0 min 2 min 0 W/m 6,3 km/h (2 Bft) 93,62 %
01.01.2017 22:02 0,9 C 0,6 C -0,6 C 90 % 15 lf 1017,7 hPa 0,0 l/m 0 min 2 min 0 W/m 6,3 km/h (2 Bft) 100,00 %
01.01.2017 22:04 0,9 C 0,6 C -0,6 C 90 % 15 lf 1017,7 hPa 0,0 l/m 0 min 2 min 0 W/m 6,3 km/h (2 Bft) 100,00 %
01.01.2017 22:06 0,9 C 0,6 C -0,6 C 90 % 15 lf 1017,7 hPa 0,0 l/m 0 min 2 min 0 W/m 12,6 km/h (3 Bft) 95,74 %
01.01.2017 22:08 0,9 C 0,6 C -0,6 C 90 % 15 lf 1017,7 hPa 0,0 l/m 0 min 2 min 0 W/m 10,5 km/h (2 Bft) 100,00 %
01.01.2017 22:10 0,9 C 0,6 C -0,6 C 90 % 15 lf 1017,7 hPa 0,0 l/m 0 min 2 min 0 W/m 6,3 km/h (2 Bft) 97,83 %
01.01.2017 22:12 0,9 C 0,6 C -0,6 C 90 % 15 lf 1017,8 hPa 0,0 l/m 0 min 2 min 0 W/m 6,3 km/h (2 Bft) 100,00 %
01.01.2017 22:14 0,9 C 0,6 C -0,6 C 90 % 15 lf 1017,8 hPa 0,0 l/m 0 min 2 min 0 W/m 6,3 km/h (2 Bft) 95,74 %
01.01.2017 22:16 0,9 C 0,6 C -0,6 C 91 % 15 lf 1017,8 hPa 0,0 l/m 0 min 2 min 0 W/m 4,2 km/h (1 Bft) 97,87 %
01.01.2017 22:18 0,9 C 0,6 C -0,6 C 91 % 15 lf 1017,8 hPa 0,0 l/m 0 min 2 min 0 W/m 4,2 km/h (1 Bft) 100,00 %
01.01.2017 22:20 0,9 C 0,6 C -0,6 C 91 % 15 lf 1017,8 hPa 0,0 l/m 0 min 2 min 0 W/m 8,4 km/h (2 Bft) 100,00 %
01.01.2017 22:22 0,9 C 0,6 C -0,6 C 91 % 15 lf 1017,8 hPa 0,0 l/m 0 min 2 min 0 W/m 4,2 km/h (1 Bft) 93,62 %
01.01.2017 22:24 0,9 C 0,6 C -0,6 C 91 % 15 lf 1017,8 hPa 0,0 l/m 0 min 2 min 0 W/m 4,2 km/h (1 Bft) 100,00 %
01.01.2017 22:26 0,9 C 0,6 C -0,6 C 91 % 15 lf 1017,8 hPa 0,0 l/m 0 min 2 min 0 W/m 0,0 km/h (0 Bft) 97,87 %
01.01.2017 22:28 0,8 C 0,6 C -0,6 C 91 % 15 lf 1017,8 hPa 0,0 l/m 0 min 2 min 0 W/m 6,3 km/h (2 Bft) 95,74 %
01.01.2017 22:30 0,8 C 0,6 C -0,6 C 91 % 15 lf 1017,8 hPa 0,0 l/m 0 min 2 min 0 W/m 4,2 km/h (1 Bft) 95,74 %
01.01.2017 22:32 0,8 C 0,6 C -0,6 C 91 % 15 lf 1017,9 hPa 0,2 l/m 0 min 2 min 0 W/m 4,2 km/h (1 Bft) 97,83 %
01.01.2017 22:34 0,8 C 0,6 C -0,6 C 91 % 15 lf 1017,9 hPa 0,0 l/m 0 min 2 min 0 W/m 4,2 km/h (1 Bft) 97,87 %
01.01.2017 22:36 0,8 C 0,6 C -0,6 C 91 % 15 lf 1017,9 hPa 0,0 l/m 0 min 2 min 0 W/m 2,1 km/h (1 Bft) 93,62 %
01.01.2017 22:38 0,8 C 0,6 C -0,6 C 91 % 15 lf 1017,9 hPa 0,0 l/m 0 min 2 min 0 W/m 4,2 km/h (1 Bft) 95,74 %
01.01.2017 22:40 0,8 C 0,6 C -0,6 C 91 % 15 lf 1017,9 hPa 0,0 l/m 0 min 2 min 0 W/m 4,2 km/h (1 Bft) 97,87 %
01.01.2017 22:42 0,8 C 0,6 C -0,6 C 91 % 15 lf 1017,9 hPa 0,0 l/m 0 min 0 min 0 W/m 4,2 km/h (1 Bft) 95,74 %
01.01.2017 22:44 0,8 C 0,6 C -0,6 C 91 % 15 lf 1017,9 hPa 0,0 l/m 0 min 2 min 0 W/m 4,2 km/h (1 Bft) 97,83 %
01.01.2017 22:46 0,8 C 0,6 C -0,6 C 92 % 15 lf 1017,9 hPa 0,0 l/m 0 min 2 min 0 W/m 2,1 km/h (1 Bft) 93,62 %
01.01.2017 22:48 0,8 C 0,6 C -0,6 C 92 % 15 lf 1018,0 hPa 0,0 l/m 0 min 2 min 0 W/m 6,3 km/h (2 Bft) 97,87 %
01.01.2017 22:50 0,8 C 0,6 C -0,6 C 92 % 15 lf 1018,0 hPa 0,0 l/m 0 min 2 min 0 W/m 6,3 km/h (2 Bft) 95,74 %
01.01.2017 22:52 0,8 C 0,6 C -0,6 C 92 % 15 lf 1018,0 hPa 0,0 l/m 0 min 2 min 0 W/m 6,3 km/h (2 Bft) 95,74 %
01.01.2017 22:54 0,8 C 0,6 C -0,6 C 92 % 15 lf 1018,0 hPa 0,0 l/m 0 min 0 min 0 W/m 6,3 km/h (2 Bft) 93,48 %
01.01.2017 22:56 0,8 C 0,6 C -0,6 C 92 % 15 lf 1018,0 hPa 0,0 l/m 0 min 0 min 0 W/m 6,3 km/h (2 Bft) 93,62 %
01.01.2017 22:58 0,8 C 0,6 C -0,6 C 92 % 15 lf 1018,0 hPa 0,0 l/m 0 min 0 min 0 W/m 6,3 km/h (2 Bft) 93,62 %
01.01.2017 23:00 0,8 C 0,6 C -0,6 C 92 % 15 lf 1018,1 hPa 0,0 l/m 0 min 2 min 0 W/m 8,4 km/h (2 Bft) 95,74 %
01.01.2017 23:02 0,8 C 0,6 C -0,6 C 92 % 15 lf 1018,2 hPa 0,0 l/m 0 min 2 min 0 W/m 8,4 km/h (2 Bft) 97,22 %
01.01.2017 23:04 0,8 C 0,6 C -0,6 C 92 % 15 lf 1018,2 hPa 0,0 l/m 0 min 0 min 0 W/m 6,3 km/h (2 Bft) 93,62 %
01.01.2017 23:06 0,8 C 0,6 C -0,6 C 92 % 15 lf 1018,1 hPa 0,0 l/m 0 min 0 min 0 W/m 4,2 km/h (1 Bft) 93,88 %
01.01.2017 23:08 0,8 C 0,6 C -0,6 C 92 % 15 lf 1018,2 hPa 0,0 l/m 0 min 0 min 0 W/m 4,2 km/h (1 Bft) 95,74 %
01.01.2017 23:10 0,8 C 0,6 C -0,6 C 93 % 15 lf 1018,1 hPa 0,0 l/m 0 min 0 min 0 W/m 6,3 km/h (2 Bft) 89,13 %
01.01.2017 23:12 0,8 C 0,6 C -0,6 C 93 % 15 lf 1018,2 hPa 0,0 l/m 0 min 0 min 0 W/m 4,2 km/h (1 Bft) 95,74 %
01.01.2017 23:14 0,8 C 0,6 C -0,6 C 93 % 15 lf 1018,2 hPa 0,0 l/m 0 min 0 min 0 W/m 10,5 km/h (2 Bft) 93,62 %
01.01.2017 23:16 0,9 C 0,6 C -0,6 C 93 % 15 lf 1018,3 hPa 0,0 l/m 0 min 0 min 0 W/m 10,5 km/h (2 Bft) 91,49 %
01.01.2017 23:18 0,8 C 0,6 C -0,6 C 93 % 15 lf 1018,2 hPa 0,0 l/m 0 min 0 min 0 W/m 6,3 km/h (2 Bft) 93,62 %
01.01.2017 23:20 0,8 C 0,6 C -0,6 C 93 % 15 lf 1018,2 hPa 0,0 l/m 0 min 0 min 0 W/m 8,4 km/h (2 Bft) 93,48 %
01.01.2017 23:22 0,8 C 0,6 C -0,6 C 93 % 15 lf 1018,2 hPa 0,0 l/m 0 min 0 min 0 W/m 6,3 km/h (2 Bft) 91,49 %
01.01.2017 23:24 0,8 C 0,6 C -0,6 C 93 % 15 lf 1018,2 hPa 0,0 l/m 0 min 0 min 0 W/m 8,4 km/h (2 Bft) 93,62 %
01.01.2017 23:26 0,8 C 0,6 C -0,6 C 93 % 15 lf 1018,2 hPa 0,0 l/m 0 min 0 min 0 W/m 6,3 km/h (2 Bft) 89,36 %
01.01.2017 23:28 0,8 C 0,6 C -0,6 C 93 % 15 lf 1018,2 hPa 0,0 l/m 0 min 0 min 0 W/m 8,4 km/h (2 Bft) 89,36 %
01.01.2017 23:30 0,8 C 0,6 C -0,6 C 93 % 15 lf 1018,2 hPa 0,0 l/m 0 min 0 min 0 W/m 12,6 km/h (3 Bft) 91,49 %
01.01.2017 23:32 0,8 C 0,6 C -0,6 C 93 % 15 lf 1018,2 hPa 0,0 l/m 0 min 0 min 0 W/m 12,6 km/h (3 Bft) 93,48 %
01.01.2017 23:34 0,8 C 0,6 C -0,6 C 93 % 15 lf 1018,3 hPa 0,0 l/m 0 min 0 min 0 W/m 12,6 km/h (3 Bft) 93,62 %
01.01.2017 23:36 0,8 C 0,6 C -0,6 C 93 % 15 lf 1018,2 hPa 0,0 l/m 0 min 0 min 0 W/m 10,5 km/h (2 Bft) 91,49 %
01.01.2017 23:38 0,8 C 0,6 C -0,6 C 93 % 15 lf 1018,3 hPa 0,0 l/m 0 min 0 min 0 W/m 10,5 km/h (2 Bft) 91,49 %
01.01.2017 23:40 0,8 C 0,6 C -0,6 C 93 % 15 lf 1018,3 hPa 0,0 l/m 0 min 0 min 0 W/m 10,5 km/h (2 Bft) 95,74 %
01.01.2017 23:42 0,8 C 0,6 C -0,6 C 93 % 15 lf 1018,3 hPa 0,0 l/m 0 min 0 min 0 W/m 10,5 km/h (2 Bft) 91,49 %
01.01.2017 23:44 0,8 C 0,6 C -0,6 C 94 % 15 lf 1018,3 hPa 0,0 l/m 0 min 0 min 0 W/m 12,6 km/h (3 Bft) 91,30 %
01.01.2017 23:46 0,8 C 0,6 C -0,6 C 94 % 15 lf 1018,1 hPa 0,0 l/m 0 min 0 min 0 W/m 18,8 km/h (3 Bft) 97,87 %
01.01.2017 23:48 0,8 C 0,6 C -0,6 C 94 % 15 lf 1018,3 hPa 0,0 l/m 0 min 0 min 0 W/m 23,0 km/h (4 Bft) 95,74 %
01.01.2017 23:50 0,8 C 0,6 C -0,6 C 94 % 15 lf 1018,3 hPa 0,0 l/m 0 min 0 min 0 W/m 14,6 km/h (3 Bft) 93,62 %
01.01.2017 23:52 0,8 C 0,6 C -0,6 C 94 % 15 lf 1018,3 hPa 0,0 l/m 0 min 0 min 0 W/m 20,9 km/h (4 Bft) 93,62 %
01.01.2017 23:54 0,8 C 0,6 C -0,6 C 94 % 15 lf 1018,3 hPa 0,0 l/m 0 min 0 min 0 W/m 14,6 km/h (3 Bft) 95,74 %
01.01.2017 23:56 0,7 C 0,6 C -0,6 C 94 % 15 lf 1018,2 hPa 0,0 l/m 0 min 0 min 0 W/m 18,8 km/h (3 Bft) 93,48 %
01.01.2017 23:58 0,7 C 0,6 C -0,6 C 94 % 15 lf 1018,3 hPa 0,0 l/m 0 min 0 min 0 W/m 18,8 km/h (3 Bft) 95,74 %
_ Min-Zeit 00:38 00:06 00:00 13:54 00:20 16:50 - - - - 22:26 14:46
Minimum _ -3,1 C -3,3 C -5,0 C 77 % 0 lf 1017,0 hPa - - - - 0,0 km/h (0 Bft) 85,71 %
_ Max-Zeit 14:10 13:58 14:10 04:08 21:58 00:00 06:26 10:08 21:04 12:14 11:22 00:06
Maximum _ 1,4 C 8,3 C 0,6 C 96 % 15 lf 1025,6 hPa 0,2 l/m 2 min 2 min 232 W/m 31,4 km/h
S (5 Bft)
100,00 %
Durchschnitt _ -0,8 C 0,1 C -1,8 C 91 % 1 lf 1019,6 hPa #0,4 l/m #4:22 h #1:30 h 109 W/m 14,0 km/h (3 Bft) 95,66 %
© 2017 W. Hausmann